DH1GAP-13 Weather Reports


Display with metric or nautical units.
time (UTC)temp
F
wind
direction
speed
MPH
gust
MPH
rain 1hr
in
rain 24hr
in
rain mn
in
humidity
%
barometer
mb
20260502140112 81 157 0.0 0.0 0.00 0.00 0.00 34 1027.6
20260502130712 81 157 0.0 0.0 0.00 0.00 0.00 36 1028.4
20260502130612 81 180 0.0 0.0 0.00 0.00 0.00 36 1028.4
20260502130512 81 157 0.0 0.0 0.00 0.00 0.00 36 1028.4
20260502130412 81 180 2.0 0.0 0.00 0.00 0.00 36 1028.4
20260502130312 81 180 0.0 0.0 0.00 0.00 0.00 36 1028.5
20260502130212 81 180 1.0 0.0 0.00 0.00 0.00 36 1028.5
20260502130112 81 180 0.0 0.0 0.00 0.00 0.00 36 1028.5
20260502123812 80 180 0.0 0.0 0.00 0.00 0.00 37 1028.5
20260502123712 80 180 0.0 0.0 0.00 0.00 0.00 37 1028.6
20260502123612 80 225 3.0 0.0 0.00 0.00 0.00 37 1028.6
20260502123512 80 202 4.0 0.0 0.00 0.00 0.00 37 1028.8
20260502123412 80 202 1.0 0.0 0.00 0.00 0.00 37 1028.6
20260502123312 80 180 0.0 0.0 0.00 0.00 0.00 37 1028.6
20260502123212 80 180 0.0 0.0 0.00 0.00 0.00 37 1028.6
20260502123112 80 157 0.0 0.0 0.00 0.00 0.00 37 1028.9
20260502123012 79 180 0.0 0.0 0.00 0.00 0.00 37 1028.9
20260502122912 79 180 0.0 0.0 0.00 0.00 0.00 37 1028.9
20260502122812 79 180 0.0 0.0 0.00 0.00 0.00 37 1028.8
20260502122712 79 157 0.0 0.0 0.00 0.00 0.00 37 1028.9
20260502122612 79 157 0.0 0.0 0.00 0.00 0.00 37 1028.9
20260502122512 79 180 0.0 0.0 0.00 0.00 0.00 38 1028.9
20260502122413 79 202 6.0 0.0 0.00 0.00 0.00 38 1029.0
20260502122312 79 202 0.0 0.0 0.00 0.00 0.00 38 1028.9
20260502122212 79 225 0.0 0.0 0.00 0.00 0.00 38 1029.0
20260502122112 79 202 0.0 0.0 0.00 0.00 0.00 38 1029.0
20260502122012 79 202 0.0 0.0 0.00 0.00 0.00 38 1029.0
20260502121912 79 202 0.0 0.0 0.00 0.00 0.00 38 1029.0
20260502121812 79 135 0.0 0.0 0.00 0.00 0.00 38 1029.0
20260502121712 78 157 0.0 0.0 0.00 0.00 0.00 38 1029.0
20260502121612 78 157 0.0 0.0 0.00 0.00 0.00 38 1029.0
20260502121512 78 135 5.0 0.0 0.00 0.00 0.00 38 1029.0
20260502121412 78 157 0.0 0.0 0.00 0.00 0.00 38 1029.0
20260502121312 78 157 0.0 0.0 0.00 0.00 0.00 38 1029.0
20260502121212 78 157 2.0 0.0 0.00 0.00 0.00 38 1029.0
20260502121112 78 202 0.0 0.0 0.00 0.00 0.00 38 1029.0
20260502121012 78 202 0.0 0.0 0.00 0.00 0.00 38 1029.0
20260502120912 78 180 0.0 0.0 0.00 0.00 0.00 38 1029.1
20260502120812 78 180 0.0 0.0 0.00 0.00 0.00 38 1029.0
20260502120712 78 135 0.0 0.0 0.00 0.00 0.00 38 1029.0
20260502120612 78 135 0.0 0.0 0.00 0.00 0.00 38 1029.0
20260502120512 78 180 0.0 0.0 0.00 0.00 0.00 38 1029.0
20260502120412 78 202 0.0 0.0 0.00 0.00 0.00 38 1029.1
20260502120312 78 0 0.0 0.0 0.00 0.00 0.00 38 1029.0
20260502120212 78 0 0.0 0.0 0.00 0.00 0.00 38 1029.1
20260502120112 78 135 0.0 0.0 0.00 0.00 0.00 39 1029.1
20260502115912 78 22 0.0 0.0 0.00 0.00 0.00 39 1029.1
20260502115812 78 45 0.0 0.0 0.00 0.00 0.00 39 1029.3
20260502115712 78 45 0.0 0.0 0.00 0.00 0.00 39 1029.3
20260502115612 78 45 0.0 0.0 0.00 0.00 0.00 39 1029.4
20260502115512 78 112 0.0 0.0 0.00 0.00 0.00 39 1029.3
20260502115412 78 135 3.0 0.0 0.00 0.00 0.00 39 1029.4
20260502115312 78 157 0.0 0.0 0.00 0.00 0.00 39 1029.4
20260502115212 78 157 0.0 0.0 0.00 0.00 0.00 39 1029.3
20260502115112 78 157 0.0 0.0 0.00 0.00 0.00 39 1029.4
20260502115012 78 135 0.0 0.0 0.00 0.00 0.00 39 1029.4
20260502114912 78 135 0.0 0.0 0.00 0.00 0.00 39 1029.3
20260502114812 78 45 0.0 0.0 0.00 0.00 0.00 40 1029.5
20260502114712 78 45 0.0 0.0 0.00 0.00 0.00 40 1029.5
20260502114612 77 45 0.0 0.0 0.00 0.00 0.00 40 1029.5
20260502114512 77 112 0.0 0.0 0.00 0.00 0.00 40 1029.5
20260502114412 77 67 6.0 0.0 0.00 0.00 0.00 40 1029.5
20260502114312 77 135 0.0 0.0 0.00 0.00 0.00 40 1029.5
20260502114212 77 135 6.0 0.0 0.00 0.00 0.00 40 1029.5
20260502114112 77 67 0.0 0.0 0.00 0.00 0.00 40 1029.5
20260502114012 77 135 0.0 0.0 0.00 0.00 0.00 40 1029.5
20260502113912 77 112 0.0 0.0 0.00 0.00 0.00 40 1029.5
20260502113812 77 135 0.0 0.0 0.00 0.00 0.00 40 1029.5
20260502113712 77 157 0.0 0.0 0.00 0.00 0.00 40 1029.6
20260502113612 77 67 0.0 0.0 0.00 0.00 0.00 40 1029.6
20260502113512 77 135 7.0 0.0 0.00 0.00 0.00 40 1029.6
20260502113412 77 135 0.0 0.0 0.00 0.00 0.00 40 1029.6
20260502113312 77 112 0.0 0.0 0.00 0.00 0.00 41 1029.6
20260502113212 77 67 4.0 0.0 0.00 0.00 0.00 41 1029.8
20260502113112 76 157 6.0 0.0 0.00 0.00 0.00 41 1029.8
20260502113012 76 135 4.0 0.0 0.00 0.00 0.00 41 1029.8
20260502112912 76 112 0.0 0.0 0.00 0.00 0.00 41 1029.8
20260502112812 76 135 0.0 0.0 0.00 0.00 0.00 41 1029.9
20260502112712 76 112 0.0 0.0 0.00 0.00 0.00 41 1029.9
20260502112612 76 135 0.0 0.0 0.00 0.00 0.00 41 1029.8
20260502112512 76 112 0.0 0.0 0.00 0.00 0.00 41 1029.6
20260502112412 76 135 2.0 0.0 0.00 0.00 0.00 41 1029.9
20260502112312 76 112 0.0 0.0 0.00 0.00 0.00 41 1030.0
20260502112212 76 135 0.0 0.0 0.00 0.00 0.00 41 1030.0
20260502112112 76 135 0.0 0.0 0.00 0.00 0.00 41 1030.0
20260502112012 76 135 0.0 0.0 0.00 0.00 0.00 42 1030.0
20260502111912 76 135 2.0 0.0 0.00 0.00 0.00 42 1030.0
20260502111812 76 180 5.0 0.0 0.00 0.00 0.00 42 1030.0
20260502111712 76 180 2.0 0.0 0.00 0.00 0.00 42 1030.0
20260502111612 76 135 0.0 0.0 0.00 0.00 0.00 42 1030.0
20260502111512 75 157 0.0 0.0 0.00 0.00 0.00 42 1030.0
20260502111412 75 180 0.0 0.0 0.00 0.00 0.00 42 1030.0
20260502111312 75 157 0.0 0.0 0.00 0.00 0.00 42 1030.0
20260502111212 75 157 0.0 0.0 0.00 0.00 0.00 42 1030.0
20260502111112 75 135 0.0 0.0 0.00 0.00 0.00 42 1030.0
20260502111012 75 157 0.0 0.0 0.00 0.00 0.00 42 1030.0
20260502110912 75 180 0.0 0.0 0.00 0.00 0.00 42 1030.0
20260502110812 75 180 0.0 0.0 0.00 0.00 0.00 42 1030.0
20260502110712 75 135 0.0 0.0 0.00 0.00 0.00 42 1030.0
20260502110612 75 180 0.0 0.0 0.00 0.00 0.00 42 1030.0
20260502110512 75 180 0.0 0.0 0.00 0.00 0.00 42 1030.0
20260502110412 75 180 0.0 0.0 0.00 0.00 0.00 42 1030.0
20260502110312 75 180 0.0 0.0 0.00 0.00 0.00 42 1030.0
20260502110212 75 180 0.0 0.0 0.00 0.00 0.00 42 1030.0
20260502110112 75 202 0.0 0.0 0.00 0.00 0.00 43 1030.0
20260502110012 75 180 0.0 0.0 0.00 0.00 0.00 43 1030.1
20260502105912 75 180 0.0 0.0 0.00 0.00 0.00 43 1030.3
20260502105812 75 180 0.0 0.0 0.00 0.00 0.00 43 1030.1
20260502105712 74 180 0.0 0.0 0.00 0.00 0.00 43 1030.1
20260502105612 74 202 0.0 0.0 0.00 0.00 0.00 43 1030.1
20260502105512 74 202 0.0 0.0 0.00 0.00 0.00 43 1030.4
20260502105412 74 202 0.0 0.0 0.00 0.00 0.00 43 1030.4
20260502105312 74 180 0.0 0.0 0.00 0.00 0.00 43 1030.3
20260502105212 74 157 0.0 0.0 0.00 0.00 0.00 43 1030.4
20260502105112 74 157 0.0 0.0 0.00 0.00 0.00 43 1030.4
20260502105012 74 157 0.0 0.0 0.00 0.00 0.00 43 1030.4
20260502104912 74 157 0.0 0.0 0.00 0.00 0.00 43 1030.4
20260502104812 73 135 3.0 0.0 0.00 0.00 0.00 43 1030.5
20260502104712 74 247 0.0 0.0 0.00 0.00 0.00 43 1030.4
20260502104612 73 247 0.0 0.0 0.00 0.00 0.00 43 1030.4
20260502104512 73 247 0.0 0.0 0.00 0.00 0.00 43 1030.4
20260502104412 73 225 0.0 0.0 0.00 0.00 0.00 43 1030.5
20260502104312 73 202 6.0 0.0 0.00 0.00 0.00 43 1030.5
20260502104212 73 202 6.0 0.0 0.00 0.00 0.00 43 1030.5
20260502104112 73 180 0.0 0.0 0.00 0.00 0.00 43 1030.5
20260502104012 73 135 0.0 0.0 0.00 0.00 0.00 43 1030.5
20260502103912 73 135 0.0 0.0 0.00 0.00 0.00 44 1030.5
20260502103812 73 135 0.0 0.0 0.00 0.00 0.00 44 1030.5
20260502103712 73 157 2.0 0.0 0.00 0.00 0.00 44 1030.5
20260502103612 73 67 0.0 0.0 0.00 0.00 0.00 44 1030.5
20260502103512 73 157 0.0 0.0 0.00 0.00 0.00 44 1030.5
20260502103412 73 157 0.0 0.0 0.00 0.00 0.00 44 1030.5
20260502103312 73 67 0.0 0.0 0.00 0.00 0.00 44 1030.5
20260502103212 73 135 0.0 0.0 0.00 0.00 0.00 44 1030.5
20260502103112 72 135 0.0 0.0 0.00 0.00 0.00 44 1030.5
20260502103012 72 112 0.0 0.0 0.00 0.00 0.00 44 1030.5
20260502102912 72 157 0.0 0.0 0.00 0.00 0.00 44 1030.5
20260502102812 72 157 0.0 0.0 0.00 0.00 0.00 44 1030.5
20260502102712 72 135 0.0 0.0 0.00 0.00 0.00 44 1030.5
20260502102612 72 157 0.0 0.0 0.00 0.00 0.00 44 1030.6
20260502102512 72 157 0.0 0.0 0.00 0.00 0.00 44 1030.8
20260502102412 72 180 0.0 0.0 0.00 0.00 0.00 44 1030.6
20260502102312 72 157 0.0 0.0 0.00 0.00 0.00 44 1030.8
20260502102212 72 180 0.0 0.0 0.00 0.00 0.00 44 1030.8
20260502102112 72 157 0.0 0.0 0.00 0.00 0.00 44 1030.8
20260502102012 72 157 3.0 0.0 0.00 0.00 0.00 45 1030.8
20260502101912 71 180 0.0 0.0 0.00 0.00 0.00 45 1030.9
20260502101812 71 157 0.0 0.0 0.00 0.00 0.00 44 1030.9
20260502101712 71 157 0.0 0.0 0.00 0.00 0.00 44 1030.8
20260502101612 71 157 3.0 0.0 0.00 0.00 0.00 44 1030.9
20260502101512 71 135 0.0 0.0 0.00 0.00 0.00 44 1030.9
20260502101412 71 157 0.0 0.0 0.00 0.00 0.00 44 1030.9
20260502101312 71 135 0.0 0.0 0.00 0.00 0.00 44 1030.8
20260502101212 71 157 0.0 0.0 0.00 0.00 0.00 45 1031.0
20260502101112 71 157 0.0 0.0 0.00 0.00 0.00 45 1031.0
20260502101012 71 135 0.0 0.0 0.00 0.00 0.00 45 1031.0
20260502100912 71 157 0.0 0.0 0.00 0.00 0.00 45 1031.0
20260502100812 71 135 0.0 0.0 0.00 0.00 0.00 45 1031.0
20260502100712 71 180 0.0 0.0 0.00 0.00 0.00 45 1030.9
20260502100612 71 180 0.0 0.0 0.00 0.00 0.00 45 1031.0
20260502100512 70 135 0.0 0.0 0.00 0.00 0.00 45 1031.0
20260502100412 70 157 0.0 0.0 0.00 0.00 0.00 45 1031.0
20260502100312 70 180 0.0 0.0 0.00 0.00 0.00 45 1031.0
20260502100212 70 157 0.0 0.0 0.00 0.00 0.00 45 1031.0
20260502100112 70 157 0.0 0.0 0.00 0.00 0.00 45 1031.0
20260502091512 67 157 1.0 0.0 0.00 0.00 0.00 47 1031.5
20260502091412 67 180 0.0 0.0 0.00 0.00 0.00 47 1031.5
20260502091312 67 157 0.0 0.0 0.00 0.00 0.00 47 1031.5
20260502091212 67 180 0.0 0.0 0.00 0.00 0.00 47 1031.5
20260502091112 67 180 0.0 0.0 0.00 0.00 0.00 47 1031.5
20260502091012 66 180 3.0 0.0 0.00 0.00 0.00 47 1031.5
20260502090912 66 180 0.0 0.0 0.00 0.00 0.00 47 1031.5
20260502090812 66 180 0.0 0.0 0.00 0.00 0.00 47 1031.5
20260502090712 66 135 0.0 0.0 0.00 0.00 0.00 47 1031.5
20260502090612 66 135 0.0 0.0 0.00 0.00 0.00 47 1031.5
20260502090512 66 135 0.0 0.0 0.00 0.00 0.00 47 1031.5
20260502090412 66 180 0.0 0.0 0.00 0.00 0.00 47 1031.5
20260502090312 66 180 0.0 0.0 0.00 0.00 0.00 47 1031.5
20260502090212 66 135 0.0 0.0 0.00 0.00 0.00 47 1031.5
20260502090112 66 180 0.0 0.0 0.00 0.00 0.00 47 1031.6
20260502071511 62 270 0.0 0.0 0.00 0.00 0.00 47 1032.0
20260502071411 62 270 0.0 0.0 0.00 0.00 0.00 47 1032.1
20260502071311 62 270 0.0 0.0 0.00 0.00 0.00 47 1032.0
20260502071211 62 270 0.0 0.0 0.00 0.00 0.00 47 1032.0
20260502071111 62 270 0.0 0.0 0.00 0.00 0.00 47 1032.0
20260502071011 62 270 0.0 0.0 0.00 0.00 0.00 47 1032.0
20260502070911 62 270 0.0 0.0 0.00 0.00 0.00 47 1032.1
20260502070811 62 270 0.0 0.0 0.00 0.00 0.00 47 1032.1
20260502070711 63 270 0.0 0.0 0.00 0.00 0.00 47 1032.1
20260502070611 63 270 0.0 0.0 0.00 0.00 0.00 47 1032.1
20260502070511 63 270 0.0 0.0 0.00 0.00 0.00 47 1032.1
20260502070411 63 270 0.0 0.0 0.00 0.00 0.00 47 1032.1
20260502070311 63 270 0.0 0.0 0.00 0.00 0.00 47 1032.1
20260502070211 63 270 0.0 0.0 0.00 0.00 0.00 47 1032.1
20260502070112 63 270 0.0 0.0 0.00 0.00 0.00 48 1032.1
20260502070012 63 270 0.0 0.0 0.00 0.00 0.00 47 1032.3
20260502065911 63 270 0.0 0.0 0.00 0.00 0.00 48 1032.1
20260502065811 63 292 0.0 0.0 0.00 0.00 0.00 48 1032.1
20260502065711 63 337 0.0 0.0 0.00 0.00 0.00 48 1032.1
20260502065611 63 337 0.0 0.0 0.00 0.00 0.00 48 1032.1
20260502065511 64 292 0.0 0.0 0.00 0.00 0.00 48 1032.1
20260502065411 64 292 0.0 0.0 0.00 0.00 0.00 48 1032.3
20260502065311 64 292 0.0 0.0 0.00 0.00 0.00 48 1032.3
20260502065211 64 337 0.0 0.0 0.00 0.00 0.00 48 1032.3
20260502065111 64 337 0.0 0.0 0.00 0.00 0.00 48 1032.3
20260502065011 64 337 0.0 0.0 0.00 0.00 0.00 48 1032.1
20260502064911 64 337 0.0 0.0 0.00 0.00 0.00 48 1032.3
20260502064811 64 337 0.0 0.0 0.00 0.00 0.00 48 1032.3
20260502064711 64 337 0.0 0.0 0.00 0.00 0.00 48 1032.3
20260502064611 64 337 0.0 0.0 0.00 0.00 0.00 48 1032.1
20260502064511 64 315 0.0 0.0 0.00 0.00 0.00 48 1032.3
20260502064411 64 315 0.0 0.0 0.00 0.00 0.00 48 1032.3
20260502064311 64 315 0.0 0.0 0.00 0.00 0.00 48 1032.3
20260502064211 64 315 0.0 0.0 0.00 0.00 0.00 48 1032.1
20260502064111 64 315 0.0 0.0 0.00 0.00 0.00 48 1032.0
20260502064011 64 315 0.0 0.0 0.00 0.00 0.00 48 1032.1
20260502063911 64 315 0.0 0.0 0.00 0.00 0.00 48 1032.3
20260502063811 64 315 0.0 0.0 0.00 0.00 0.00 49 1032.3
20260502063711 64 315 0.0 0.0 0.00 0.00 0.00 49 1032.1
20260502063611 64 315 0.0 0.0 0.00 0.00 0.00 49 1032.3
20260502063511 64 315 0.0 0.0 0.00 0.00 0.00 49 1032.1
20260502063411 64 315 0.0 0.0 0.00 0.00 0.00 49 1032.1
20260502063311 64 315 0.0 0.0 0.00 0.00 0.00 49 1032.3
20260502063211 64 315 0.0 0.0 0.00 0.00 0.00 49 1032.3
20260502063111 65 315 0.0 0.0 0.00 0.00 0.00 49 1032.3
20260502063011 64 315 0.0 0.0 0.00 0.00 0.00 49 1032.3
20260502062911 64 315 0.0 0.0 0.00 0.00 0.00 49 1032.3
20260502062811 65 315 0.0 0.0 0.00 0.00 0.00 49 1032.3
20260502062711 64 315 0.0 0.0 0.00 0.00 0.00 49 1032.0
20260502062611 64 315 0.0 0.0 0.00 0.00 0.00 49 1032.1
20260502062511 64 315 0.0 0.0 0.00 0.00 0.00 50 1032.1
20260502062411 64 315 0.0 0.0 0.00 0.00 0.00 50 1032.1
20260502062311 64 315 0.0 0.0 0.00 0.00 0.00 50 1032.0
20260502062211 64 315 0.0 0.0 0.00 0.00 0.00 50 1032.0
20260502062111 64 315 0.0 0.0 0.00 0.00 0.00 50 1032.0
20260502062011 64 315 0.0 0.0 0.00 0.00 0.00 50 1032.1
20260502061911 64 315 0.0 0.0 0.00 0.00 0.00 50 1032.1
20260502061811 64 315 0.0 0.0 0.00 0.00 0.00 50 1032.0
20260502061711 64 315 0.0 0.0 0.00 0.00 0.00 50 1032.0
20260502061611 64 315 0.0 0.0 0.00 0.00 0.00 50 1032.0
20260502061511 64 315 0.0 0.0 0.00 0.00 0.00 51 1032.0
20260502061411 64 315 0.0 0.0 0.00 0.00 0.00 51 1032.0
20260502061311 64 315 0.0 0.0 0.00 0.00 0.00 51 1032.0
20260502061211 64 315 0.0 0.0 0.00 0.00 0.00 51 1032.0
20260502061111 64 315 0.0 0.0 0.00 0.00 0.00 51 1032.1
20260502061011 64 315 0.0 0.0 0.00 0.00 0.00 52 1032.1
20260502060911 64 315 0.0 0.0 0.00 0.00 0.00 52 1032.0
20260502060811 64 315 0.0 0.0 0.00 0.00 0.00 52 1032.1
20260502060711 64 315 0.0 0.0 0.00 0.00 0.00 52 1032.1
20260502060611 64 315 0.0 0.0 0.00 0.00 0.00 52 1032.3
20260502060511 64 315 0.0 0.0 0.00 0.00 0.00 52 1032.1
20260502060411 64 315 0.0 0.0 0.00 0.00 0.00 53 1032.1
20260502060311 63 315 0.0 0.0 0.00 0.00 0.00 53 1032.1
20260502060211 63 315 0.0 0.0 0.00 0.00 0.00 53 1032.1
20260502060111 63 315 0.0 0.0 0.00 0.00 0.00 53 1032.0
20260502060011 63 315 0.0 0.0 0.00 0.00 0.00 54 1032.1
20260502055911 63 315 0.0 0.0 0.00 0.00 0.00 54 1032.1
20260502055811 62 315 0.0 0.0 0.00 0.00 0.00 54 1032.1
20260502055711 62 315 0.0 0.0 0.00 0.00 0.00 54 1032.1
20260502055611 62 315 0.0 0.0 0.00 0.00 0.00 54 1032.3
20260502055511 62 315 0.0 0.0 0.00 0.00 0.00 54 1032.1
20260502055411 62 315 0.0 0.0 0.00 0.00 0.00 54 1032.3
20260502055311 61 315 0.0 0.0 0.00 0.00 0.00 55 1032.3
20260502055211 61 315 0.0 0.0 0.00 0.00 0.00 55 1032.1
20260502055111 61 315 0.0 0.0 0.00 0.00 0.00 55 1032.1
20260502055011 61 315 0.0 0.0 0.00 0.00 0.00 55 1032.1
20260502054911 61 315 0.0 0.0 0.00 0.00 0.00 55 1032.1
20260502054811 60 315 0.0 0.0 0.00 0.00 0.00 56 1032.1
20260502054711 60 315 0.0 0.0 0.00 0.00 0.00 56 1032.1
20260502054611 60 315 0.0 0.0 0.00 0.00 0.00 56 1032.1
20260502054511 60 315 0.0 0.0 0.00 0.00 0.00 56 1032.1
20260502054411 59 315 0.0 0.0 0.00 0.00 0.00 57 1032.1
20260502054311 59 315 0.0 0.0 0.00 0.00 0.00 57 1032.1
20260502054211 59 315 0.0 0.0 0.00 0.00 0.00 57 1032.1
20260502054111 59 315 0.0 0.0 0.00 0.00 0.00 58 1032.3
20260502054011 58 315 0.0 0.0 0.00 0.00 0.00 58 1032.1
20260502053911 58 315 0.0 0.0 0.00 0.00 0.00 58 1032.1
20260502053811 58 315 0.0 0.0 0.00 0.00 0.00 58 1032.1
20260502053711 58 315 0.0 0.0 0.00 0.00 0.00 58 1032.1
20260502053611 57 315 0.0 0.0 0.00 0.00 0.00 59 1032.1
20260502053511 57 315 0.0 0.0 0.00 0.00 0.00 59 1032.1
20260502053411 57 315 0.0 0.0 0.00 0.00 0.00 59 1032.3
20260502053311 57 315 0.0 0.0 0.00 0.00 0.00 59 1032.1
20260502053211 57 315 0.0 0.0 0.00 0.00 0.00 59 1032.1
20260502053111 56 315 0.0 0.0 0.00 0.00 0.00 60 1032.1
20260502053011 56 315 0.0 0.0 0.00 0.00 0.00 60 1032.1
20260502052911 56 315 0.0 0.0 0.00 0.00 0.00 60 1032.1
20260502052811 55 315 0.0 0.0 0.00 0.00 0.00 60 1032.1
20260502052711 55 315 0.0 0.0 0.00 0.00 0.00 60 1032.1
20260502052611 55 315 0.0 0.0 0.00 0.00 0.00 60 1032.1
20260502052511 54 315 0.0 0.0 0.00 0.00 0.00 60 1032.1
20260502052411 54 315 0.0 0.0 0.00 0.00 0.00 61 1032.1
20260502052311 54 315 0.0 0.0 0.00 0.00 0.00 61 1032.1
20260502052211 53 315 0.0 0.0 0.00 0.00 0.00 61 1032.1
20260502052111 53 315 0.0 0.0 0.00 0.00 0.00 61 1032.1
20260502052011 53 315 0.0 0.0 0.00 0.00 0.00 61 1032.3
20260502051911 53 315 0.0 0.0 0.00 0.00 0.00 61 1032.1
20260502051811 52 315 0.0 0.0 0.00 0.00 0.00 62 1032.1
20260502051711 52 315 0.0 0.0 0.00 0.00 0.00 62 1032.3
20260502051611 51 315 0.0 0.0 0.00 0.00 0.00 62 1032.3
20260502051511 51 315 0.0 0.0 0.00 0.00 0.00 62 1032.1
20260502051411 51 315 0.0 0.0 0.00 0.00 0.00 62 1032.3
20260502051311 51 315 0.0 0.0 0.00 0.00 0.00 62 1032.3
20260502051211 50 315 0.0 0.0 0.00 0.00 0.00 62 1032.0
20260502051111 50 315 0.0 0.0 0.00 0.00 0.00 62 1032.1
20260502051011 50 315 0.0 0.0 0.00 0.00 0.00 62 1032.1
20260502050911 50 315 0.0 0.0 0.00 0.00 0.00 62 1032.0
20260502050811 49 315 0.0 0.0 0.00 0.00 0.00 63 1032.0
20260502050711 49 315 0.0 0.0 0.00 0.00 0.00 63 1032.0
20260502050611 49 315 0.0 0.0 0.00 0.00 0.00 63 1032.0
20260502050511 48 315 0.0 0.0 0.00 0.00 0.00 63 1032.0
20260502050411 48 315 0.0 0.0 0.00 0.00 0.00 63 1032.0
20260502050311 48 315 0.0 0.0 0.00 0.00 0.00 63 1032.0
20260502050211 47 315 0.0 0.0 0.00 0.00 0.00 63 1032.0
20260502050111 47 315 0.0 0.0 0.00 0.00 0.00 63 1032.0
20260502050011 47 315 0.0 0.0 0.00 0.00 0.00 63 1032.0
20260502045911 47 315 0.0 0.0 0.00 0.00 0.00 63 1032.0
20260502045811 46 315 0.0 0.0 0.00 0.00 0.00 63 1032.0
20260502045711 46 315 0.0 0.0 0.00 0.00 0.00 63 1032.0
20260502045611 46 315 0.0 0.0 0.00 0.00 0.00 63 1032.0
20260502045511 46 315 0.0 0.0 0.00 0.00 0.00 63 1032.0
20260502045411 45 315 0.0 0.0 0.00 0.00 0.00 64 1032.0
20260502045311 45 315 0.0 0.0 0.00 0.00 0.00 64 1032.0
20260502045211 44 315 0.0 0.0 0.00 0.00 0.00 64 1032.0
20260502045111 44 315 0.0 0.0 0.00 0.00 0.00 64 1032.0
20260502045011 44 315 0.0 0.0 0.00 0.00 0.00 64 1032.0
20260502044911 44 315 0.0 0.0 0.00 0.00 0.00 64 1032.0
20260502044811 43 315 0.0 0.0 0.00 0.00 0.00 64 1032.0
20260502044711 43 315 0.0 0.0 0.00 0.00 0.00 64 1032.0
20260502044611 43 315 0.0 0.0 0.00 0.00 0.00 64 1032.0
20260502044511 43 315 0.0 0.0 0.00 0.00 0.00 64 1032.0
20260502044411 42 315 0.0 0.0 0.00 0.00 0.00 64 1032.0
20260502044311 42 315 0.0 0.0 0.00 0.00 0.00 64 1032.0
20260502044211 41 315 0.0 0.0 0.00 0.00 0.00 64 1032.0
20260502044111 41 315 0.0 0.0 0.00 0.00 0.00 64 1032.0
20260502044011 41 315 0.0 0.0 0.00 0.00 0.00 64 1032.0
20260502043911 40 315 0.0 0.0 0.00 0.00 0.00 64 1032.0
20260502043811 40 315 0.0 0.0 0.00 0.00 0.00 64 1032.0
20260502043711 40 315 0.0 0.0 0.00 0.00 0.00 64 1032.0
20260502043611 39 315 0.0 0.0 0.00 0.00 0.00 64 1032.0
20260502043411 39 315 0.0 0.0 0.00 0.00 0.00 64 1032.0
20260502043311 39 315 0.0 0.0 0.00 0.00 0.00 64 1032.0
20260502043211 39 315 0.0 0.0 0.00 0.00 0.00 64 1032.0
20260502043111 38 315 0.0 0.0 0.00 0.00 0.00 64 1032.0
20260502043011 38 315 0.0 0.0 0.00 0.00 0.00 64 1032.0
20260502042911 38 315 0.0 0.0 0.00 0.00 0.00 64 1032.0
20260502042811 38 315 0.0 0.0 0.00 0.00 0.00 64 1032.0
20260502042711 38 315 0.0 0.0 0.00 0.00 0.00 64 1032.0
20260502042611 38 315 0.0 0.0 0.00 0.00 0.00 64 1031.9
20260502042511 38 315 0.0 0.0 0.00 0.00 0.00 64 1031.9
20260502042411 38 315 0.0 0.0 0.00 0.00 0.00 64 1031.9
20260502042311 38 315 0.0 0.0 0.00 0.00 0.00 64 1031.9
20260502042211 38 315 0.0 0.0 0.00 0.00 0.00 64 1032.0
20260502042111 38 315 0.0 0.0 0.00 0.00 0.00 64 1032.0
20260502042011 38 315 0.0 0.0 0.00 0.00 0.00 64 1031.9
20260502041911 38 315 0.0 0.0 0.00 0.00 0.00 64 1032.0
20260502041811 38 315 0.0 0.0 0.00 0.00 0.00 64 1032.0
20260502041711 38 315 0.0 0.0 0.00 0.00 0.00 64 1032.0
20260502041611 38 315 0.0 0.0 0.00 0.00 0.00 64 1032.0
20260502041511 38 315 0.0 0.0 0.00 0.00 0.00 63 1032.1
20260502041411 38 315 0.0 0.0 0.00 0.00 0.00 64 1032.0
20260502041311 37 315 0.0 0.0 0.00 0.00 0.00 64 1031.9
20260502041211 38 315 0.0 0.0 0.00 0.00 0.00 63 1032.0
20260502041111 38 315 0.0 0.0 0.00 0.00 0.00 63 1032.0
20260502041011 38 315 0.0 0.0 0.00 0.00 0.00 63 1032.0
20260502040911 38 315 183.0 0.0 0.00 0.00 0.00 63 1032.0
20260502040811 38 315 0.0 0.0 0.00 0.00 0.00 63 1032.0
20260502040711 38 315 0.0 0.0 0.00 0.00 0.00 63 1032.0
20260502040611 38 315 0.0 0.0 0.00 0.00 0.00 63 1032.0
20260502040511 37 315 0.0 0.0 0.00 0.00 0.00 63 1032.0
20260502040411 37 315 0.0 0.0 0.00 0.00 0.00 63 1032.0
20260502040311 38 315 0.0 0.0 0.00 0.00 0.00 63 1032.0
20260502040211 38 315 0.0 0.0 0.00 0.00 0.00 63 1032.0
20260502040111 38 315 0.0 0.0 0.00 0.00 0.00 63 1032.0
20260502040011 38 315 0.0 0.0 0.00 0.00 0.00 63 1032.0
20260502035911 38 315 0.0 0.0 0.00 0.00 0.00 63 1032.0
20260502035811 38 315 0.0 0.0 0.00 0.00 0.00 63 1031.9
20260502035711 38 315 0.0 0.0 0.00 0.00 0.00 63 1031.9
20260502035611 38 315 0.0 0.0 0.00 0.00 0.00 63 1031.9
20260502035511 38 315 0.0 0.0 0.00 0.00 0.00 63 1031.9
20260502035411 38 315 0.0 0.0 0.00 0.00 0.00 63 1031.9
20260502035311 38 315 0.0 0.0 0.00 0.00 0.00 63 1031.9
20260502035211 38 315 0.0 0.0 0.00 0.00 0.00 63 1031.9
20260502035111 38 315 0.0 0.0 0.00 0.00 0.00 63 1032.0
20260502035011 38 315 0.0 0.0 0.00 0.00 0.00 63 1031.9
20260502034911 38 315 0.0 0.0 0.00 0.00 0.00 63 1031.9
20260502034811 38 315 0.0 0.0 0.00 0.00 0.00 63 1031.9
20260502034711 38 315 0.0 0.0 0.00 0.00 0.00 63 1031.9
20260502034611 38 315 0.0 0.0 0.00 0.00 0.00 63 1031.9
20260502034511 38 315 0.0 0.0 0.00 0.00 0.00 63 1031.9
20260502034411 38 315 0.0 0.0 0.00 0.00 0.00 63 1031.9
20260502034311 38 315 0.0 0.0 0.00 0.00 0.00 63 1031.9
20260502034211 38 315 0.0 0.0 0.00 0.00 0.00 63 1031.8
20260502034111 38 315 0.0 0.0 0.00 0.00 0.00 63 1031.8
20260502034011 38 315 0.0 0.0 0.00 0.00 0.00 63 1031.8
20260502033911 38 315 0.0 0.0 0.00 0.00 0.00 63 1031.9
20260502033811 38 315 0.0 0.0 0.00 0.00 0.00 63 1031.9
20260502033711 38 315 0.0 0.0 0.00 0.00 0.00 63 1031.8
20260502033611 38 315 0.0 0.0 0.00 0.00 0.00 63 1031.8
20260502033511 38 315 0.0 0.0 0.00 0.00 0.00 63 1031.8
20260502033411 38 315 0.0 0.0 0.00 0.00 0.00 63 1031.6
20260502033311 38 315 0.0 0.0 0.00 0.00 0.00 63 1031.8
20260502033211 38 315 0.0 0.0 0.00 0.00 0.00 63 1031.5
20260502033111 38 315 0.0 0.0 0.00 0.00 0.00 63 1031.8
20260502033011 38 315 0.0 0.0 0.00 0.00 0.00 63 1031.8
20260502032911 38 315 0.0 0.0 0.00 0.00 0.00 63 1031.6
20260502032811 38 315 0.0 0.0 0.00 0.00 0.00 62 1031.8
20260502032711 38 315 0.0 0.0 0.00 0.00 0.00 62 1031.8
20260502032611 38 315 0.0 0.0 0.00 0.00 0.00 62 1031.8
20260502032511 38 315 0.0 0.0 0.00 0.00 0.00 62 1031.6
20260502032411 38 315 0.0 0.0 0.00 0.00 0.00 62 1031.6
20260502032311 38 315 0.0 0.0 0.00 0.00 0.00 62 1031.6
20260502032211 38 315 0.0 0.0 0.00 0.00 0.00 62 1031.6
20260502032111 38 315 0.0 0.0 0.00 0.00 0.00 62 1031.6
20260502032011 38 315 0.0 0.0 0.00 0.00 0.00 62 1031.6
20260502031942 38 315 0.0 0.0 0.00 0.00 0.00 62 1031.8
20260502031911 38 315 0.0 0.0 0.00 0.00 0.00 62 1031.8
20260502031811 38 315 0.0 0.0 0.00 0.00 0.00 62 1031.5
20260502031711 38 315 0.0 0.0 0.00 0.00 0.00 62 1031.6
20260502031611 38 315 0.0 0.0 0.00 0.00 0.00 62 1031.8
20260502031511 38 315 0.0 0.0 0.00 0.00 0.00 62 1031.9
20260502031411 38 315 0.0 0.0 0.00 0.00 0.00 62 1031.9
20260502031311 39 315 0.0 0.0 0.00 0.00 0.00 62 1031.8
20260502031211 39 315 0.0 0.0 0.00 0.00 0.00 62 1032.0
20260502031111 39 315 0.0 0.0 0.00 0.00 0.00 62 1031.9
20260502031011 39 315 0.0 0.0 0.00 0.00 0.00 62 1031.8
20260502030911 39 315 0.0 0.0 0.00 0.00 0.00 62 1031.9
20260502030811 39 315 0.0 0.0 0.00 0.00 0.00 62 1032.0
20260502030711 39 315 0.0 0.0 0.00 0.00 0.00 62 1032.0
20260502030611 39 315 0.0 0.0 0.00 0.00 0.00 62 1032.0
20260502030511 39 315 0.0 0.0 0.00 0.00 0.00 62 1031.9
20260502030411 39 315 0.0 0.0 0.00 0.00 0.00 62 1032.0
20260502030311 39 315 0.0 0.0 0.00 0.00 0.00 62 1032.0
20260502030211 39 315 0.0 0.0 0.00 0.00 0.00 62 1031.9
20260502030111 39 315 0.0 0.0 0.00 0.00 0.00 62 1031.8
20260502030011 39 315 0.0 0.0 0.00 0.00 0.00 62 1031.9
20260502025911 39 315 0.0 0.0 0.00 0.00 0.00 61 1031.9
20260502025811 39 315 0.0 0.0 0.00 0.00 0.00 61 1031.9
20260502025711 39 315 0.0 0.0 0.00 0.00 0.00 61 1031.9
20260502025611 39 315 0.0 0.0 0.00 0.00 0.00 61 1031.9
20260502025511 39 315 0.0 0.0 0.00 0.00 0.00 61 1031.9
20260502025411 39 315 0.0 0.0 0.00 0.00 0.00 61 1032.0
20260502025311 39 315 0.0 0.0 0.00 0.00 0.00 61 1031.8
20260502025211 39 315 0.0 0.0 0.00 0.00 0.00 61 1031.9
20260502025111 39 315 0.0 0.0 0.00 0.00 0.00 61 1031.9
20260502025011 39 315 0.0 0.0 0.00 0.00 0.00 61 1031.9
20260502024911 39 315 0.0 0.0 0.00 0.00 0.00 61 1031.9
20260502024811 39 315 0.0 0.0 0.00 0.00 0.00 61 1031.9
20260502024711 39 315 0.0 0.0 0.00 0.00 0.00 61 1031.9
20260502024611 39 315 0.0 0.0 0.00 0.00 0.00 61 1031.9
20260502024511 39 315 0.0 0.0 0.00 0.00 0.00 61 1031.8
20260502024411 39 315 0.0 0.0 0.00 0.00 0.00 61 1031.9
20260502024311 39 315 0.0 0.0 0.00 0.00 0.00 61 1032.0
20260502024211 39 315 0.0 0.0 0.00 0.00 0.00 61 1031.9
20260502024111 39 315 0.0 0.0 0.00 0.00 0.00 61 1031.9
20260502024011 39 315 0.0 0.0 0.00 0.00 0.00 61 1031.9
20260502023911 39 315 0.0 0.0 0.00 0.00 0.00 61 1031.8
20260502023811 39 315 0.0 0.0 0.00 0.00 0.00 61 1031.9
20260502023711 39 315 0.0 0.0 0.00 0.00 0.00 61 1031.9
20260502023611 39 315 0.0 0.0 0.00 0.00 0.00 61 1031.9
20260502023511 39 315 0.0 0.0 0.00 0.00 0.00 61 1031.9
20260502023442 39 315 0.0 0.0 0.00 0.00 0.00 61 1031.8
20260502023411 39 315 0.0 0.0 0.00 0.00 0.00 60 1031.8
20260502023311 39 315 0.0 0.0 0.00 0.00 0.00 60 1031.9
20260502023211 39 315 0.0 0.0 0.00 0.00 0.00 60 1031.9
20260502023111 39 315 0.0 0.0 0.00 0.00 0.00 60 1031.9
20260502023011 39 315 0.0 0.0 0.00 0.00 0.00 60 1031.9
20260502022911 39 315 0.0 0.0 0.00 0.00 0.00 60 1031.9
20260502022811 39 315 0.0 0.0 0.00 0.00 0.00 60 1031.9
20260502022711 39 315 0.0 0.0 0.00 0.00 0.00 60 1032.0
20260502022611 39 315 0.0 0.0 0.00 0.00 0.00 60 1032.0
20260502022511 39 315 0.0 0.0 0.00 0.00 0.00 60 1031.9
20260502022411 39 315 0.0 0.0 0.00 0.00 0.00 60 1031.9
20260502022311 39 315 0.0 0.0 0.00 0.00 0.00 60 1032.0
20260502022211 39 315 0.0 0.0 0.00 0.00 0.00 60 1032.0
20260502022111 39 315 0.0 0.0 0.00 0.00 0.00 60 1032.0
20260502021942 39 315 0.0 0.0 0.00 0.00 0.00 60 1032.0
20260502021911 39 315 0.0 0.0 0.00 0.00 0.00 60 1032.0
20260502021811 39 315 0.0 0.0 0.00 0.00 0.00 60 1032.0
20260502021711 39 315 0.0 0.0 0.00 0.00 0.00 60 1032.0
20260502021611 39 315 0.0 0.0 0.00 0.00 0.00 60 1032.0
20260502021511 40 315 0.0 0.0 0.00 0.00 0.00 60 1032.0
20260502021411 40 315 0.0 0.0 0.00 0.00 0.00 60 1032.0
20260502021311 40 315 0.0 0.0 0.00 0.00 0.00 60 1032.0
20260502021211 40 315 0.0 0.0 0.00 0.00 0.00 60 1032.0
20260502021111 40 315 0.0 0.0 0.00 0.00 0.00 60 1032.0
20260502021011 40 315 0.0 0.0 0.00 0.00 0.00 60 1032.0
20260502020911 40 315 0.0 0.0 0.00 0.00 0.00 60 1032.0
20260502020811 40 315 0.0 0.0 0.00 0.00 0.00 60 1032.0
20260502020711 40 315 0.0 0.0 0.00 0.00 0.00 60 1032.0
20260502020611 40 315 0.0 0.0 0.00 0.00 0.00 60 1032.1
20260502020511 40 315 0.0 0.0 0.00 0.00 0.00 59 1032.0
20260502020411 40 315 0.0 0.0 0.00 0.00 0.00 59 1032.0
20260502020311 40 315 0.0 0.0 0.00 0.00 0.00 59 1032.0
20260502020211 40 315 0.0 0.0 0.00 0.00 0.00 59 1032.0
20260502020111 40 315 0.0 0.0 0.00 0.00 0.00 59 1032.0
20260502020011 40 315 0.0 0.0 0.00 0.00 0.00 59 1032.0
20260502015911 40 315 0.0 0.0 0.00 0.00 0.00 59 1032.0
20260502015811 40 315 0.0 0.0 0.00 0.00 0.00 59 1031.9
20260502015711 40 315 0.0 0.0 0.00 0.00 0.00 59 1031.9
20260502015611 40 315 0.0 0.0 0.00 0.00 0.00 59 1032.0
20260502015511 40 315 0.0 0.0 0.00 0.00 0.00 59 1031.9
20260502015411 40 315 0.0 0.0 0.00 0.00 0.00 59 1031.9
20260502015311 40 315 0.0 0.0 0.00 0.00 0.00 59 1032.0
20260502015211 40 315 0.0 0.0 0.00 0.00 0.00 59 1031.9
20260502015111 40 315 0.0 0.0 0.00 0.00 0.00 59 1031.9
20260502015011 40 315 0.0 0.0 0.00 0.00 0.00 59 1032.0
20260502014911 40 315 0.0 0.0 0.00 0.00 0.00 59 1031.8
20260502014811 41 315 0.0 0.0 0.00 0.00 0.00 59 1031.8
20260502014711 41 315 0.0 0.0 0.00 0.00 0.00 59 1031.9
20260502014611 41 315 0.0 0.0 0.00 0.00 0.00 59 1032.0
20260502014511 41 315 0.0 0.0 0.00 0.00 0.00 59 1032.0
20260502014411 41 315 0.0 0.0 0.00 0.00 0.00 59 1032.0
20260502014311 41 315 0.0 0.0 0.00 0.00 0.00 59 1032.0
20260502014211 41 315 0.0 0.0 0.00 0.00 0.00 59 1032.0
20260502014111 41 315 0.0 0.0 0.00 0.00 0.00 59 1031.9
20260502014011 41 315 0.0 0.0 0.00 0.00 0.00 58 1031.9
20260502013911 41 315 0.0 0.0 0.00 0.00 0.00 58 1032.0
20260502013811 41 315 0.0 0.0 0.00 0.00 0.00 58 1032.0
20260502013711 41 315 0.0 0.0 0.00 0.00 0.00 58 1032.0
20260502013611 41 315 0.0 0.0 0.00 0.00 0.00 58 1032.0
20260502013411 41 315 0.0 0.0 0.00 0.00 0.00 58 1032.0
20260502013311 41 315 0.0 0.0 0.00 0.00 0.00 58 1032.0
20260502013211 41 315 0.0 0.0 0.00 0.00 0.00 58 1032.0
20260502013111 41 315 0.0 0.0 0.00 0.00 0.00 58 1032.1
20260502013011 41 315 0.0 0.0 0.00 0.00 0.00 58 1032.1
20260502012911 41 315 0.0 0.0 0.00 0.00 0.00 58 1032.1
20260502012811 41 315 0.0 0.0 0.00 0.00 0.00 58 1032.1
20260502012711 41 315 0.0 0.0 0.00 0.00 0.00 58 1032.1
20260502012611 41 315 0.0 0.0 0.00 0.00 0.00 58 1032.0
20260502012511 41 315 0.0 0.0 0.00 0.00 0.00 58 1032.0
20260502012411 41 315 0.0 0.0 0.00 0.00 0.00 58 1032.0
20260502012311 41 315 0.0 0.0 0.00 0.00 0.00 58 1032.0
20260502012211 41 315 0.0 0.0 0.00 0.00 0.00 58 1032.0
20260502012111 41 315 0.0 0.0 0.00 0.00 0.00 58 1032.0
20260502012011 41 315 0.0 0.0 0.00 0.00 0.00 58 1032.1
20260502011911 41 315 0.0 0.0 0.00 0.00 0.00 58 1032.0
20260502011811 42 315 0.0 0.0 0.00 0.00 0.00 57 1032.0
20260502011711 42 315 0.0 0.0 0.00 0.00 0.00 57 1032.0
20260502011611 42 315 0.0 0.0 0.00 0.00 0.00 57 1032.0
20260502011511 42 315 0.0 0.0 0.00 0.00 0.00 58 1032.0
20260502011411 42 315 0.0 0.0 0.00 0.00 0.00 58 1032.0
20260502011311 42 315 0.0 0.0 0.00 0.00 0.00 58 1032.0
20260502011211 42 315 0.0 0.0 0.00 0.00 0.00 58 1032.0
20260502011111 42 315 0.0 0.0 0.00 0.00 0.00 58 1032.0
20260502011011 42 315 0.0 0.0 0.00 0.00 0.00 58 1032.0
20260502010911 42 315 0.0 0.0 0.00 0.00 0.00 58 1032.1
20260502010811 42 315 0.0 0.0 0.00 0.00 0.00 58 1032.0
20260502010711 42 315 0.0 0.0 0.00 0.00 0.00 58 1032.1
20260502010611 42 315 0.0 0.0 0.00 0.00 0.00 58 1032.1
20260502010511 42 315 0.0 0.0 0.00 0.00 0.00 57 1032.1
20260502010411 42 315 0.0 0.0 0.00 0.00 0.00 57 1032.1
20260502010311 42 315 0.0 0.0 0.00 0.00 0.00 57 1032.1
20260502010211 42 315 0.0 0.0 0.00 0.00 0.00 57 1032.1
20260502010111 42 315 0.0 0.0 0.00 0.00 0.00 57 1032.1
20260502010011 42 315 0.0 0.0 0.00 0.00 0.00 57 1032.1
20260502005911 42 315 0.0 0.0 0.00 0.00 0.00 57 1032.1
20260502005811 42 315 0.0 0.0 0.00 0.00 0.00 57 1032.1
20260502005711 42 315 0.0 0.0 0.00 0.00 0.00 57 1032.0
20260502005611 42 315 0.0 0.0 0.00 0.00 0.00 57 1032.0
20260502005511 42 315 0.0 0.0 0.00 0.00 0.00 57 1032.0
20260502005411 42 315 0.0 0.0 0.00 0.00 0.00 57 1032.0
20260502005311 42 315 0.0 0.0 0.00 0.00 0.00 57 1032.1
20260502005211 42 315 0.0 0.0 0.00 0.00 0.00 57 1032.0
20260502005111 42 315 0.0 0.0 0.00 0.00 0.00 57 1032.1
20260502005011 42 315 0.0 0.0 0.00 0.00 0.00 57 1032.1
20260502004911 42 315 0.0 0.0 0.00 0.00 0.00 57 1032.3
20260502004811 42 315 0.0 0.0 0.00 0.00 0.00 57 1032.1
20260502004711 42 315 0.0 0.0 0.00 0.00 0.00 57 1032.1
20260502004611 42 315 0.0 0.0 0.00 0.00 0.00 57 1032.3
20260502004511 43 315 0.0 0.0 0.00 0.00 0.00 57 1032.3
20260502004411 43 315 0.0 0.0 0.00 0.00 0.00 57 1032.3
20260502004311 43 315 0.0 0.0 0.00 0.00 0.00 57 1032.3
20260502004211 43 315 0.0 0.0 0.00 0.00 0.00 56 1032.1
20260502004111 43 315 0.0 0.0 0.00 0.00 0.00 56 1032.3
20260502004011 43 315 0.0 0.0 0.00 0.00 0.00 56 1032.3
20260502003911 43 315 0.0 0.0 0.00 0.00 0.00 56 1032.3
20260502003811 43 315 0.0 0.0 0.00 0.00 0.00 56 1032.1
20260502003711 43 315 0.0 0.0 0.00 0.00 0.00 56 1032.1
20260502003611 43 315 0.0 0.0 0.00 0.00 0.00 56 1032.1
20260502003511 43 315 0.0 0.0 0.00 0.00 0.00 56 1032.1
20260502003411 43 315 0.0 0.0 0.00 0.00 0.00 56 1032.3
20260502003311 43 315 0.0 0.0 0.00 0.00 0.00 56 1032.3
20260502003211 43 337 0.0 0.0 0.00 0.00 0.00 56 1032.3
20260502003111 43 337 0.0 0.0 0.00 0.00 0.00 56 1032.3
20260502003011 44 337 0.0 0.0 0.00 0.00 0.00 56 1032.1
20260502002911 44 337 0.0 0.0 0.00 0.00 0.00 56 1032.1
20260502002811 44 337 0.0 0.0 0.00 0.00 0.00 56 1032.1
20260502002711 44 337 0.0 0.0 0.00 0.00 0.00 56 1032.1
20260502002611 44 337 0.0 0.0 0.00 0.00 0.00 56 1032.3
20260502002511 44 337 0.0 0.0 0.00 0.00 0.00 56 1032.3
20260502002411 44 337 0.0 0.0 0.00 0.00 0.00 56 1032.3
20260502002311 44 337 0.0 0.0 0.00 0.00 0.00 56 1032.1
20260502002211 44 337 0.0 0.0 0.00 0.00 0.00 56 1032.1
20260502002111 44 337 0.0 0.0 0.12 0.00 0.00 56 1032.3
20260502002011 44 292 0.0 0.0 0.00 0.00 0.00 56 1032.3
20260502001911 44 292 0.0 0.0 0.00 0.00 0.00 56 1032.3
20260502001811 44 292 0.0 0.0 0.00 0.00 0.00 56 1032.3
20260502001711 44 292 0.0 0.0 0.00 0.00 0.00 56 1032.3
20260502001611 44 292 0.0 0.0 0.00 0.00 0.00 56 1032.3
20260502001511 44 292 0.0 0.0 0.00 0.00 0.00 56 1032.3
20260502001411 44 292 0.0 0.0 0.00 0.00 0.00 56 1032.1
20260502001311 44 292 0.0 0.0 0.00 0.00 0.00 56 1032.3
20260502001211 44 292 0.0 0.0 0.00 0.00 0.00 56 1032.3
20260502001111 44 292 0.0 0.0 0.00 0.00 0.00 56 1032.3
20260502001011 44 292 0.0 0.0 0.00 0.00 0.00 55 1032.1
20260502000911 44 292 0.0 0.0 0.00 0.00 0.00 56 1032.3
20260502000811 44 292 0.0 0.0 0.00 0.00 0.00 55 1032.1
20260502000711 44 292 0.0 0.0 0.00 0.00 0.00 55 1032.3
20260502000611 44 292 0.0 0.0 0.00 0.00 0.00 55 1032.1
20260502000511 44 292 0.0 0.0 0.00 0.00 0.00 55 1032.3
20260502000411 44 292 0.0 0.0 0.00 0.00 0.00 55 1032.3
20260502000311 44 292 0.0 0.0 0.00 0.00 0.00 55 1032.4
20260502000211 44 292 0.0 0.0 0.00 0.00 0.00 55 1032.4
20260502000111 44 292 0.0 0.0 0.00 0.00 0.00 55 1032.3
20260502000011 44 292 0.0 0.0 0.00 0.00 0.00 55 1032.3
20260501235911 44 315 0.0 0.0 0.00 0.00 0.00 55 1032.4
20260501235811 44 337 0.0 0.0 0.00 0.00 0.00 55 1032.3
20260501235711 44 337 0.0 0.0 0.00 0.00 0.00 55 1032.3
20260501235611 44 337 0.0 0.0 0.00 0.00 0.00 55 1032.3
20260501235511 44 337 0.0 0.0 0.00 0.00 0.00 55 1032.3
20260501235411 44 337 0.0 0.0 0.00 0.00 0.00 55 1032.3
20260501235311 44 337 0.0 0.0 0.00 0.00 0.00 55 1032.3
20260501235211 44 337 0.0 0.0 0.00 0.00 0.00 55 1032.4
20260501235111 44 337 0.0 0.0 0.00 0.00 0.00 55 1032.3
20260501235011 44 337 0.0 0.0 0.00 0.00 0.00 55 1032.3
20260501234911 44 270 0.0 0.0 0.00 0.00 0.00 55 1032.4
20260501234811 44 270 0.0 0.0 0.00 0.00 0.00 55 1032.4
20260501234711 44 270 0.0 0.0 0.00 0.00 0.00 55 1032.3
20260501234611 44 270 0.0 0.0 0.00 0.00 0.00 54 1032.5
20260501234511 44 270 0.0 0.0 0.00 0.00 0.00 54 1032.4
20260501234411 44 270 0.0 0.0 0.00 0.00 0.00 54 1032.3
20260501234311 45 270 0.0 0.0 0.00 0.00 0.00 54 1032.3
20260501234211 45 270 0.0 0.0 0.00 0.00 0.00 54 1032.3
20260501234111 45 270 0.0 0.0 0.00 0.00 0.00 54 1032.3
20260501234011 45 270 0.0 0.0 0.00 0.00 0.00 55 1032.3
20260501233911 45 270 0.0 0.0 0.00 0.00 0.00 55 1032.3
20260501233811 45 270 0.0 0.0 0.00 0.00 0.00 55 1032.3
20260501233711 45 270 0.0 0.0 0.00 0.00 0.00 55 1032.3
20260501233611 45 270 0.0 0.0 0.00 0.00 0.00 55 1032.3
20260501233511 45 270 0.0 0.0 0.00 0.00 0.00 55 1032.1
20260501233411 45 270 0.0 0.0 0.00 0.00 0.00 55 1032.3
20260501233311 45 270 0.0 0.0 0.00 0.00 0.00 55 1032.1
20260501233211 45 270 0.0 0.0 0.00 0.00 0.00 55 1032.3
20260501233111 45 270 0.0 0.0 0.00 0.00 0.00 55 1032.1
20260501233011 45 270 0.0 0.0 0.00 0.00 0.00 55 1032.3
20260501232911 45 270 0.0 0.0 0.00 0.00 0.00 55 1032.3
20260501232811 45 270 0.0 0.0 0.00 0.00 0.00 55 1032.3
20260501232711 45 270 0.0 0.0 0.00 0.00 0.00 55 1032.3
20260501232611 45 270 0.0 0.0 0.00 0.00 0.00 54 1032.3
20260501232511 45 270 0.0 0.0 0.00 0.00 0.00 54 1032.1
20260501232411 45 270 0.0 0.0 0.00 0.00 0.00 54 1032.1
20260501232311 45 270 0.0 0.0 0.00 0.00 0.00 54 1032.1
20260501232211 45 270 0.0 0.0 0.00 0.00 0.00 54 1032.3
20260501232111 45 270 0.0 0.0 0.00 0.00 0.00 54 1032.3
20260501232011 45 270 0.0 0.0 0.00 0.00 0.00 54 1032.0
20260501231911 45 270 0.0 0.0 0.00 0.00 0.00 54 1032.1
20260501231811 45 270 0.0 0.0 0.00 0.00 0.00 54 1032.1
20260501231711 45 270 0.0 0.0 0.00 0.00 0.00 54 1032.1
20260501231611 45 270 0.0 0.0 0.00 0.00 0.00 54 1032.1
20260501231511 45 270 0.0 0.0 0.00 0.00 0.00 54 1032.1
20260501231411 45 270 0.0 0.0 0.00 0.00 0.00 54 1032.1
20260501231311 45 270 0.0 0.0 0.00 0.00 0.00 54 1032.3
20260501231211 45 270 0.0 0.0 0.00 0.00 0.00 54 1032.3
20260501231111 45 270 0.0 0.0 0.00 0.00 0.00 54 1032.1
20260501231011 45 270 0.0 0.0 0.00 0.00 0.00 54 1032.1
20260501230911 45 270 0.0 0.0 0.00 0.00 0.00 54 1032.1
20260501230811 45 270 0.0 0.0 0.00 0.00 0.00 54 1032.3
20260501230711 45 270 0.0 0.0 0.00 0.00 0.00 54 1032.3
20260501230611 45 270 0.0 0.0 0.00 0.00 0.00 54 1032.1
20260501230511 45 270 0.0 0.0 0.00 0.00 0.00 53 1032.3
20260501230411 45 270 0.0 0.0 0.00 0.00 0.00 53 1032.3
20260501230311 46 270 0.0 0.0 0.00 0.00 0.00 53 1032.1
20260501230211 46 270 0.0 0.0 0.00 0.00 0.00 53 1032.1
20260501230111 46 270 0.0 0.0 0.00 0.00 0.00 53 1032.4
20260501230011 46 270 0.0 0.0 0.00 0.00 0.00 53 1032.3
20260501225911 46 270 0.0 0.0 0.00 0.00 0.00 53 1032.1
20260501225811 46 270 0.0 0.0 0.00 0.00 0.00 53 1032.1
20260501225711 46 270 0.0 0.0 0.00 0.00 0.00 53 1032.3
20260501225611 46 270 0.0 0.0 0.00 0.00 0.00 53 1032.3
20260501225511 46 270 0.0 0.0 0.00 0.00 0.00 53 1032.3
20260501225411 46 315 0.0 0.0 0.00 0.00 0.00 53 1032.3
20260501225311 46 315 0.0 0.0 0.00 0.00 0.00 53 1032.1
20260501225211 46 315 0.0 0.0 0.00 0.00 0.00 53 1032.3
20260501225111 46 337 0.0 0.0 0.00 0.00 0.00 53 1032.1
20260501225011 46 337 0.0 0.0 0.00 0.00 0.00 53 1032.1
20260501224911 46 337 0.0 0.0 0.00 0.00 0.00 53 1032.1
20260501224811 46 337 0.0 0.0 0.00 0.00 0.00 53 1032.1
20260501224711 46 315 0.0 0.0 0.00 0.00 0.00 53 1032.0
20260501224611 46 315 0.0 0.0 0.00 0.00 0.00 53 1032.0
20260501224511 46 315 0.0 0.0 0.00 0.00 0.00 53 1032.1
20260501224411 46 315 0.0 0.0 0.00 0.00 0.00 53 1032.1
20260501224311 46 315 0.0 0.0 0.00 0.00 0.00 53 1032.1
20260501224211 46 315 0.0 0.0 0.00 0.00 0.00 53 1032.0
20260501224111 46 315 0.0 0.0 0.00 0.00 0.00 53 1032.0
20260501224011 46 315 0.0 0.0 0.00 0.00 0.00 53 1032.0
20260501223911 46 315 0.0 0.0 0.00 0.00 0.00 53 1032.0
20260501223811 46 315 0.0 0.0 0.00 0.00 0.00 52 1032.0
20260501223710 46 315 0.0 0.0 0.00 0.00 0.00 52 1032.1
20260501223611 46 315 0.0 0.0 0.00 0.00 0.00 52 1032.1
20260501223511 46 315 0.0 0.0 0.00 0.00 0.00 52 1032.0
20260501223411 46 315 0.0 0.0 0.00 0.00 0.00 52 1032.1
20260501223310 46 315 0.0 0.0 0.00 0.00 0.00 52 1032.1
20260501223211 46 315 0.0 0.0 0.00 0.00 0.00 52 1032.3
20260501223111 46 315 0.0 0.0 0.00 0.00 0.00 52 1032.3
20260501223011 46 315 0.0 0.0 0.00 0.00 0.00 52 1032.3
20260501222910 46 315 0.0 0.0 0.00 0.00 0.00 52 1032.3
20260501222811 46 315 0.0 0.0 0.00 0.00 0.00 52 1032.3
20260501222711 46 315 0.0 0.0 0.00 0.00 0.00 52 1032.3
20260501222610 46 315 0.0 0.0 0.00 0.00 0.00 52 1032.3
20260501222511 46 315 0.0 0.0 0.00 0.00 0.00 52 1032.4
20260501222411 46 315 0.0 0.0 0.00 0.00 0.00 52 1032.3
20260501222310 46 315 0.0 0.0 0.00 0.00 0.00 52 1032.3
20260501222211 46 315 0.0 0.0 0.00 0.00 0.00 52 1032.3
20260501222110 46 315 0.0 0.0 0.00 0.00 0.00 52 1032.3
20260501222011 46 315 0.0 0.0 0.00 0.00 0.00 51 1032.3
20260501221911 46 315 0.0 0.0 0.00 0.00 0.00 51 1032.3
20260501221811 46 315 0.0 0.0 0.00 0.00 0.00 51 1032.3
20260501221710 46 315 0.0 0.0 0.00 0.00 0.00 51 1032.3
20260501221611 46 315 0.0 0.0 0.00 0.00 0.00 51 1032.3
20260501221511 46 315 0.0 0.0 0.00 0.00 0.00 51 1032.3
20260501221411 46 315 0.0 0.0 0.00 0.00 0.00 51 1032.3
20260501221310 47 315 0.0 0.0 0.00 0.00 0.00 51 1032.3
20260501221211 47 315 0.0 0.0 0.00 0.00 0.00 51 1032.3
20260501221111 47 315 0.0 0.0 0.00 0.00 0.00 51 1032.1
20260501221011 47 315 0.0 0.0 0.00 0.00 0.00 51 1032.1
20260501220910 47 315 0.0 0.0 0.00 0.00 0.00 51 1032.1
20260501220810 47 315 0.0 0.0 0.00 0.00 0.00 51 1032.3
20260501220710 47 315 0.0 0.0 0.00 0.00 0.00 51 1032.1
20260501220611 47 315 0.0 0.0 0.00 0.00 0.00 51 1032.1
20260501220510 47 315 0.0 0.0 0.00 0.00 0.00 51 1032.3
20260501220442 47 315 0.0 0.0 0.00 0.00 0.00 51 1032.1
20260501220411 47 315 0.0 0.0 0.00 0.00 0.00 51 1032.1
20260501220310 47 315 0.0 0.0 0.00 0.00 0.00 51 1032.3
20260501220210 47 315 0.0 0.0 0.00 0.00 0.00 51 1032.3
20260501220110 47 315 0.0 0.0 0.00 0.00 0.00 51 1032.4
20260501220010 47 315 0.0 0.0 0.00 0.00 0.00 51 1032.4
20260501215910 47 315 0.0 0.0 0.00 0.00 0.00 51 1032.3
20260501215810 47 315 0.0 0.0 0.00 0.00 0.00 51 1032.4
20260501215710 47 315 0.0 0.0 0.00 0.00 0.00 51 1032.3
20260501215610 47 315 0.0 0.0 0.00 0.00 0.00 51 1032.3
20260501215510 48 315 0.0 0.0 0.00 0.00 0.00 50 1032.3
20260501215410 48 315 0.0 0.0 0.00 0.00 0.00 50 1032.3
20260501215310 48 315 0.0 0.0 0.00 0.00 0.00 50 1032.3
20260501215210 48 315 0.0 0.0 0.00 0.00 0.00 50 1032.3
20260501215110 48 315 0.0 0.0 0.00 0.00 0.00 50 1032.1
20260501215010 48 315 0.0 0.0 0.00 0.00 0.00 50 1032.3
20260501214910 48 315 0.0 0.0 0.00 0.00 0.00 50 1032.3
20260501214810 48 180 0.0 0.0 0.00 0.00 0.00 50 1032.3
20260501214710 48 180 0.0 0.0 0.00 0.00 0.00 50 1032.3
20260501214610 48 180 0.0 0.0 0.00 0.00 0.00 50 1032.3
20260501214510 48 180 0.0 0.0 0.00 0.00 0.00 50 1032.3
20260501214410 48 180 0.0 0.0 0.00 0.00 0.00 50 1032.1
20260501214310 48 180 0.0 0.0 0.00 0.00 0.00 50 1032.3
20260501214210 48 180 0.0 0.0 0.00 0.00 0.00 50 1032.3
20260501214110 48 180 0.0 0.0 0.00 0.00 0.00 49 1032.1
20260501214010 48 180 0.0 0.0 0.00 0.00 0.00 49 1032.1
20260501213910 48 180 0.0 0.0 0.00 0.00 0.00 49 1032.1
20260501213810 48 180 0.0 0.0 0.00 0.00 0.00 49 1032.1
20260501213710 48 180 0.0 0.0 0.00 0.00 0.00 49 1032.1
20260501213610 48 180 0.0 0.0 0.00 0.00 0.00 49 1032.1
20260501213510 48 180 0.0 0.0 0.00 0.00 0.00 49 1032.3
20260501213410 48 180 0.0 0.0 0.00 0.00 0.00 49 1032.3
20260501213310 48 180 0.0 0.0 0.00 0.00 0.00 49 1032.3
20260501213210 48 180 0.0 0.0 0.00 0.00 0.00 49 1032.1
20260501213110 48 180 0.0 0.0 0.00 0.00 0.00 49 1032.3
20260501213010 48 180 0.0 0.0 0.00 0.00 0.00 49 1032.3
20260501212910 48 180 0.0 0.0 0.00 0.00 0.00 49 1032.3
20260501212810 48 180 0.0 0.0 0.00 0.00 0.00 49 1032.4
20260501212710 48 180 0.0 0.0 0.00 0.00 0.00 49 1032.4
20260501212610 48 180 0.0 0.0 0.00 0.00 0.00 49 1032.3
20260501212510 48 180 0.0 0.0 0.00 0.00 0.00 49 1032.3
20260501212410 48 180 0.0 0.0 0.00 0.00 0.00 49 1032.4
20260501212310 48 180 0.0 0.0 0.00 0.00 0.00 49 1032.3
20260501212210 48 180 0.0 0.0 0.00 0.00 0.00 49 1032.3
20260501212110 48 180 0.0 0.0 0.00 0.00 0.00 49 1032.3
20260501212010 48 180 0.0 0.0 0.00 0.00 0.00 49 1032.3
20260501211910 48 180 0.0 0.0 0.00 0.00 0.00 49 1032.3
20260501211810 48 180 0.0 0.0 0.00 0.00 0.00 49 1032.1
20260501211710 48 180 0.0 0.0 0.00 0.00 0.00 49 1032.1
20260501211610 48 180 0.0 0.0 0.00 0.00 0.00 49 1032.3
20260501211510 48 180 0.0 0.0 0.00 0.00 0.00 49 1032.3
20260501211410 49 180 0.0 0.0 0.00 0.00 0.00 49 1032.3
20260501211310 49 180 0.0 0.0 0.00 0.00 0.00 49 1032.1
20260501211210 49 180 0.0 0.0 0.00 0.00 0.00 49 1032.1
20260501211110 49 180 0.0 0.0 0.00 0.00 0.00 49 1032.1
20260501211010 49 180 0.0 0.0 0.00 0.00 0.00 49 1032.1
20260501210910 49 180 0.0 0.0 0.00 0.00 0.00 49 1032.1
20260501210810 49 180 0.0 0.0 0.00 0.00 0.00 48 1032.1
20260501210710 49 180 0.0 0.0 0.00 0.00 0.00 48 1032.3
20260501210610 49 180 0.0 0.0 0.00 0.00 0.00 48 1032.4
20260501210510 49 180 0.0 0.0 0.00 0.00 0.00 48 1032.1
20260501210410 49 180 0.0 0.0 0.00 0.00 0.00 48 1032.3
20260501210310 49 180 0.0 0.0 0.00 0.00 0.00 48 1032.3
20260501210210 49 180 0.0 0.0 0.00 0.00 0.00 48 1032.4
20260501210110 49 180 0.0 0.0 0.00 0.00 0.00 48 1032.3
20260501210010 49 180 0.0 0.0 0.00 0.00 0.00 48 1032.3
20260501205910 49 180 0.0 0.0 0.00 0.00 0.00 48 1032.3
20260501205810 49 180 0.0 0.0 0.00 0.00 0.00 48 1032.1
20260501205711 49 180 0.0 0.0 0.00 0.00 0.00 48 1032.1
20260501205610 49 180 0.0 0.0 0.00 0.00 0.00 48 1032.1
20260501205510 49 180 0.0 0.0 0.00 0.00 0.00 48 1032.3
20260501205410 49 180 0.0 0.0 0.00 0.00 0.00 48 1032.3
20260501205310 49 180 0.0 0.0 0.00 0.00 0.00 48 1032.3
20260501205210 49 180 0.0 0.0 0.00 0.00 0.00 48 1032.3
20260501205110 49 180 0.0 0.0 0.00 0.00 0.00 48 1032.3
20260501205010 49 180 0.0 0.0 0.00 0.00 0.00 48 1032.3
20260501204910 49 180 0.0 0.0 0.00 0.00 0.00 48 1032.1
20260501204810 49 180 0.0 0.0 0.00 0.00 0.00 48 1032.3
20260501204710 49 180 0.0 0.0 0.00 0.00 0.00 47 1032.1
20260501204610 49 180 0.0 0.0 0.00 0.00 0.00 47 1032.3
20260501204510 49 180 0.0 0.0 0.00 0.00 0.00 47 1032.3
20260501204410 50 180 0.0 0.0 0.00 0.00 0.00 47 1032.3
20260501204310 50 180 0.0 0.0 0.00 0.00 0.00 47 1032.3
20260501204210 50 180 0.0 0.0 0.00 0.00 0.00 47 1032.3
20260501204110 50 180 0.0 0.0 0.00 0.00 0.00 47 1032.3
20260501204010 50 180 0.0 0.0 0.00 0.00 0.00 47 1032.3
20260501203910 50 180 0.0 0.0 0.00 0.00 0.00 47 1032.3
20260501203810 50 180 0.0 0.0 0.00 0.00 0.00 47 1032.3
20260501203710 50 180 0.0 0.0 0.00 0.00 0.00 47 1032.3
20260501203610 50 180 0.0 0.0 0.00 0.00 0.00 47 1032.3
20260501203510 50 180 0.0 0.0 0.00 0.00 0.00 47 1032.3
20260501203410 50 180 0.0 0.0 0.00 0.00 0.00 47 1032.3
20260501203310 50 180 0.0 0.0 0.00 0.00 0.00 47 1032.1
20260501203210 50 180 0.0 0.0 0.00 0.00 0.00 47 1032.1
20260501203110 50 180 0.0 0.0 0.00 0.00 0.00 46 1032.3
20260501203010 50 180 0.0 0.0 0.00 0.00 0.00 46 1032.3
20260501202910 50 180 0.0 0.0 0.00 0.00 0.00 46 1032.3
20260501202810 50 180 0.0 0.0 0.00 0.00 0.00 46 1032.3
20260501202710 50 180 0.0 0.0 0.00 0.00 0.00 46 1032.1
20260501202610 50 180 0.0 0.0 0.00 0.00 0.00 46 1032.1
20260501202510 50 180 0.0 0.0 0.00 0.00 0.00 46 1032.1
20260501202410 50 180 0.0 0.0 0.00 0.00 0.00 46 1032.3
20260501202310 50 180 0.0 0.0 0.00 0.00 0.00 46 1032.3
20260501202210 50 180 0.0 0.0 0.00 0.00 0.00 46 1032.3
20260501202110 50 180 0.0 0.0 0.00 0.00 0.00 46 1032.3
20260501202010 50 180 0.0 0.0 0.00 0.00 0.00 46 1032.3
20260501201910 50 180 0.0 0.0 0.00 0.00 0.00 46 1032.1
20260501201810 50 180 0.0 0.0 0.00 0.00 0.00 45 1032.1
20260501201710 50 180 0.0 0.0 0.00 0.00 0.00 45 1032.1
20260501201610 50 180 0.0 0.0 0.00 0.00 0.00 45 1032.1
20260501201510 50 180 0.0 0.0 0.00 0.00 0.00 45 1032.1
20260501201410 50 180 0.0 0.0 0.00 0.00 0.00 45 1032.0
20260501201310 50 180 0.0 0.0 0.00 0.00 0.00 45 1032.0
20260501201210 50 180 0.0 0.0 0.00 0.00 0.00 45 1032.0
20260501201110 51 180 0.0 0.0 0.00 0.00 0.00 45 1032.1
20260501201010 51 180 0.0 0.0 0.00 0.00 0.00 45 1032.0
20260501200910 51 180 0.0 0.0 0.00 0.00 0.00 45 1032.1
20260501200810 51 180 0.0 0.0 0.00 0.00 0.00 45 1032.1
20260501200710 51 180 0.0 0.0 0.00 0.00 0.00 45 1032.3
20260501200610 51 180 0.0 0.0 0.00 0.00 0.00 44 1032.1
20260501200510 51 180 0.0 0.0 0.00 0.00 0.00 44 1032.3
20260501200410 51 180 0.0 0.0 0.00 0.00 0.00 44 1032.1
20260501200310 51 180 0.0 0.0 0.00 0.00 0.00 44 1032.1
20260501200210 51 180 0.0 0.0 0.00 0.00 0.00 44 1032.0
20260501200110 51 180 0.0 0.0 0.00 0.00 0.00 44 1032.1
20260501200010 51 180 0.0 0.0 0.00 0.00 0.00 44 1032.1
20260501195910 51 180 0.0 0.0 0.00 0.00 0.00 44 1032.1
20260501195810 51 180 0.0 0.0 0.00 0.00 0.00 44 1032.0
20260501195710 51 180 0.0 0.0 0.00 0.00 0.00 44 1032.3
20260501195610 51 180 0.0 0.0 0.00 0.00 0.00 44 1032.1
20260501195510 51 180 0.0 0.0 0.00 0.00 0.00 44 1032.1
20260501195410 51 180 0.0 0.0 0.00 0.00 0.00 43 1032.1
20260501195310 52 180 0.0 0.0 0.00 0.00 0.00 43 1032.0
20260501195210 52 180 0.0 0.0 0.00 0.00 0.00 43 1032.0
20260501195110 52 180 0.0 0.0 0.00 0.00 0.00 43 1032.0
20260501195010 52 180 0.0 0.0 0.00 0.00 0.00 43 1032.0
20260501194910 52 180 0.0 0.0 0.00 0.00 0.00 43 1032.0
20260501194810 52 180 0.0 0.0 0.00 0.00 0.00 43 1032.0
20260501194710 52 180 0.0 0.0 0.00 0.00 0.00 43 1031.9
20260501194610 52 180 0.0 0.0 0.00 0.00 0.00 43 1032.0
20260501194510 52 180 0.0 0.0 0.00 0.00 0.00 43 1032.1
20260501194410 52 180 0.0 0.0 0.00 0.00 0.00 42 1032.1
20260501194310 52 180 0.0 0.0 0.00 0.00 0.00 42 1032.1
20260501194210 52 180 0.0 0.0 0.00 0.00 0.00 42 1032.1
20260501194110 53 180 0.0 0.0 0.00 0.00 0.00 42 1032.0
20260501194010 53 180 0.0 0.0 0.00 0.00 0.00 42 1031.9
20260501193910 53 180 0.0 0.0 0.00 0.00 0.00 42 1032.0
20260501193810 53 180 0.0 0.0 0.00 0.00 0.00 42 1032.0
20260501193710 53 180 0.0 0.0 0.00 0.00 0.00 42 1032.0
20260501193610 53 180 0.0 0.0 0.00 0.00 0.00 42 1032.0
20260501193510 53 180 0.0 0.0 0.00 0.00 0.00 42 1032.0
20260501193410 53 180 0.0 0.0 0.00 0.00 0.00 42 1031.9
20260501193310 53 180 0.0 0.0 0.00 0.00 0.00 41 1031.9
20260501193210 53 180 0.0 0.0 0.00 0.00 0.00 41 1031.9
20260501193110 53 180 0.0 0.0 0.00 0.00 0.00 41 1031.9
20260501193010 53 180 0.0 0.0 0.00 0.00 0.00 41 1031.9
20260501192910 53 180 0.0 0.0 0.00 0.00 0.00 41 1031.9
20260501192810 53 180 0.0 0.0 0.00 0.00 0.00 41 1032.0
20260501192710 54 180 0.0 0.0 0.00 0.00 0.00 41 1031.9
20260501192610 54 180 0.0 0.0 0.00 0.00 0.00 41 1031.6
20260501192510 54 180 0.0 0.0 0.00 0.00 0.00 41 1031.8
20260501192410 54 180 0.0 0.0 0.00 0.00 0.00 41 1031.6
20260501192310 54 180 0.0 0.0 0.00 0.00 0.00 40 1031.6
20260501192210 54 180 0.0 0.0 0.00 0.00 0.00 40 1031.6
20260501192110 54 180 0.0 0.0 0.00 0.00 0.00 40 1031.9
20260501192010 54 180 0.0 0.0 0.00 0.00 0.00 40 1031.8
20260501191910 54 180 0.0 0.0 0.00 0.00 0.00 40 1031.8
20260501191810 55 180 0.0 0.0 0.00 0.00 0.00 40 1031.6
20260501191710 55 180 0.0 0.0 0.00 0.00 0.00 40 1031.8
20260501191610 55 180 0.0 0.0 0.00 0.00 0.00 40 1031.8
20260501191510 55 180 0.0 0.0 0.00 0.00 0.00 40 1031.6
20260501191410 55 180 0.0 0.0 0.00 0.00 0.00 39 1031.6
20260501191310 55 180 0.0 0.0 0.00 0.00 0.00 39 1031.8
20260501191210 55 180 0.0 0.0 0.00 0.00 0.00 39 1031.6
20260501191110 55 180 0.0 0.0 0.00 0.00 0.00 39 1031.8
20260501191010 55 180 0.0 0.0 0.00 0.00 0.00 39 1031.8
20260501190910 55 180 0.0 0.0 0.00 0.00 0.00 39 1031.9
20260501190810 56 180 0.0 0.0 0.00 0.00 0.00 39 1031.6
20260501190710 56 180 0.0 0.0 0.00 0.00 0.00 39 1031.8
20260501190610 56 180 0.0 0.0 0.00 0.00 0.00 39 1031.8
20260501190510 56 180 0.0 0.0 0.00 0.00 0.00 39 1031.5
20260501190410 56 180 0.0 0.0 0.00 0.00 0.00 38 1031.8
20260501190310 56 180 0.0 0.0 0.00 0.00 0.00 38 1031.6
20260501190210 56 180 0.0 0.0 0.00 0.00 0.00 38 1031.8
20260501190110 57 180 0.0 0.0 0.00 0.00 0.00 38 1031.8
20260501190010 57 180 0.0 0.0 0.00 0.00 0.00 38 1031.6
20260501185910 57 180 0.0 0.0 0.00 0.00 0.00 38 1031.8
20260501185811 57 180 0.0 0.0 0.00 0.00 0.00 38 1031.6
20260501185710 57 180 0.0 0.0 0.00 0.00 0.00 38 1031.8
20260501185610 57 180 0.0 0.0 0.00 0.00 0.00 38 1031.6
20260501185510 57 180 0.0 0.0 0.00 0.00 0.00 37 1031.6
20260501185410 57 180 0.0 0.0 0.00 0.00 0.00 37 1031.6
20260501185310 58 180 0.0 0.0 0.00 0.00 0.00 37 1031.8
20260501185210 58 180 0.0 0.0 0.00 0.00 0.00 37 1031.8
20260501185110 58 180 0.0 0.0 0.00 0.00 0.00 37 1031.6
20260501185010 58 180 0.0 0.0 0.00 0.00 0.00 37 1031.9
20260501184910 58 180 0.0 0.0 0.00 0.00 0.00 37 1031.6
20260501184810 58 180 0.0 0.0 0.00 0.00 0.00 37 1031.6
20260501184710 58 180 0.0 0.0 0.00 0.00 0.00 37 1031.6
20260501184610 59 180 0.0 0.0 0.00 0.00 0.00 36 1031.6
20260501184510 59 180 0.0 0.0 0.00 0.00 0.00 36 1031.8
20260501184410 59 180 0.0 0.0 0.00 0.00 0.00 36 1031.6
20260501184310 59 180 0.0 0.0 0.00 0.00 0.00 36 1031.8
20260501184210 59 180 0.0 0.0 0.00 0.00 0.00 36 1031.8
20260501184110 59 180 0.0 0.0 0.00 0.00 0.00 36 1031.8
20260501184010 60 180 0.0 0.0 0.00 0.00 0.00 36 1031.5
20260501183910 60 180 0.0 0.0 0.00 0.00 0.00 36 1031.6
20260501183810 60 180 0.0 0.0 0.00 0.00 0.00 36 1031.6
20260501183710 60 180 0.0 0.0 0.00 0.00 0.00 36 1031.8
20260501183610 60 180 0.0 0.0 0.00 0.00 0.00 36 1031.8
20260501183510 60 180 0.0 0.0 0.00 0.00 0.00 35 1031.8
20260501183410 61 180 0.0 0.0 0.00 0.00 0.00 35 1031.8
20260501183310 61 180 0.0 0.0 0.00 0.00 0.00 35 1031.9
20260501183210 61 180 0.0 0.0 0.00 0.00 0.00 35 1031.8
20260501183110 61 180 0.0 0.0 0.00 0.00 0.00 35 1031.8
20260501183010 61 180 0.0 0.0 0.00 0.00 0.00 35 1031.9
20260501182910 61 180 0.0 0.0 0.00 0.00 0.00 35 1031.8
20260501182810 61 180 0.0 0.0 0.00 0.00 0.00 35 1031.8
20260501182710 62 180 0.0 0.0 0.00 0.00 0.00 35 1031.9
20260501182610 62 180 0.0 0.0 0.00 0.00 0.00 35 1031.9
20260501182510 62 180 0.0 0.0 0.00 0.00 0.00 35 1031.9
20260501182410 62 180 0.0 0.0 0.00 0.00 0.00 35 1031.8
20260501182310 62 180 0.0 0.0 0.00 0.00 0.00 34 1032.0
20260501182210 63 180 0.0 0.0 0.00 0.00 0.00 34 1032.0
20260501182110 63 180 0.0 0.0 0.00 0.00 0.00 34 1032.0
20260501182010 63 180 0.0 0.0 0.00 0.00 0.00 34 1032.0
20260501181910 63 180 0.0 0.0 0.00 0.00 0.00 34 1032.0
20260501181810 63 180 0.0 0.0 0.00 0.00 0.00 34 1032.0
20260501181710 63 180 0.0 0.0 0.00 0.00 0.00 34 1032.0
20260501181610 64 180 0.0 0.0 0.00 0.00 0.00 34 1032.0
20260501181510 64 180 0.0 0.0 0.00 0.00 0.00 34 1032.0
20260501181410 64 180 0.0 0.0 0.00 0.00 0.00 34 1032.0
20260501181310 64 180 0.0 0.0 0.00 0.00 0.00 34 1032.0
20260501181210 64 180 0.0 0.0 0.00 0.00 0.00 34 1032.0
20260501181110 64 180 0.0 0.0 0.00 0.00 0.00 33 1032.1
20260501181010 64 180 0.0 0.0 0.00 0.00 0.00 33 1032.1
20260501180910 65 180 0.0 0.0 0.00 0.00 0.00 33 1032.0
20260501180810 65 180 0.0 0.0 0.00 0.00 0.00 33 1032.1
20260501180710 65 180 0.0 0.0 0.00 0.00 0.00 33 1032.0
20260501180610 65 180 0.0 0.0 0.00 0.00 0.00 33 1032.1
20260501180510 65 180 0.0 0.0 0.00 0.00 0.00 33 1032.1
20260501180410 66 180 0.0 0.0 0.00 0.00 0.00 33 1032.0
20260501180310 66 157 0.0 0.0 0.00 0.00 0.00 33 1032.0
20260501180210 66 157 0.0 0.0 0.00 0.00 0.00 33 1032.0
20260501180110 66 135 0.0 0.0 0.00 0.00 0.00 33 1032.0
20260501180010 66 135 0.0 0.0 0.00 0.00 0.00 32 1032.1
20260501175910 66 135 0.0 0.0 0.00 0.00 0.00 32 1032.3
20260501175810 66 135 0.0 0.0 0.00 0.00 0.00 32 1032.0
20260501175710 66 135 0.0 0.0 0.00 0.00 0.00 32 1032.0
20260501175610 67 135 0.0 0.0 0.00 0.00 0.00 32 1032.1
20260501175510 67 135 0.0 0.0 0.00 0.00 0.00 32 1032.1
20260501175410 67 135 0.0 0.0 0.00 0.00 0.00 32 1032.1
20260501175310 67 135 0.0 0.0 0.00 0.00 0.00 32 1032.0
20260501175210 67 135 0.0 0.0 0.00 0.00 0.00 32 1032.1
20260501175110 67 135 0.0 0.0 0.00 0.00 0.00 32 1032.3
20260501175010 67 135 0.0 0.0 0.00 0.00 0.00 32 1032.3
20260501174910 67 135 0.0 0.0 0.00 0.00 0.00 32 1032.1
20260501174810 68 112 0.0 0.0 0.00 0.00 0.00 32 1032.1
20260501174710 68 112 0.0 0.0 0.00 0.00 0.00 32 1032.0
20260501174610 68 112 0.0 0.0 0.00 0.00 0.00 32 1032.0
20260501174510 68 112 0.0 0.0 0.00 0.00 0.00 32 1032.0
20260501174410 68 112 0.0 0.0 0.00 0.00 0.00 31 1032.0
20260501174310 68 112 0.0 0.0 0.00 0.00 0.00 31 1032.0
20260501174210 68 112 0.0 0.0 0.00 0.00 0.00 31 1032.0
20260501174110 68 112 0.0 0.0 0.00 0.00 0.00 31 1032.0
20260501174010 68 112 0.0 0.0 0.00 0.00 0.00 31 1032.0
20260501173910 68 112 0.0 0.0 0.00 0.00 0.00 31 1032.0
20260501173810 68 112 0.0 0.0 0.00 0.00 0.00 31 1032.0
20260501173710 68 112 0.0 0.0 0.00 0.00 0.00 31 1032.0
20260501173610 68 112 0.0 0.0 0.00 0.00 0.00 31 1032.0
20260501173510 68 157 0.0 0.0 0.00 0.00 0.00 31 1032.0
20260501173410 68 135 0.0 0.0 0.00 0.00 0.00 31 1032.0
20260501173310 68 112 0.0 0.0 0.00 0.00 0.00 31 1031.9
20260501173210 69 112 0.0 0.0 0.00 0.00 0.00 31 1031.9
20260501173110 69 112 0.0 0.0 0.00 0.00 0.00 31 1031.9
20260501173010 69 135 0.0 0.0 0.00 0.00 0.00 31 1031.9
20260501172910 69 135 0.0 0.0 0.00 0.00 0.00 31 1031.9
20260501172810 69 135 0.0 0.0 0.00 0.00 0.00 31 1031.8
20260501172710 69 135 0.0 0.0 0.00 0.00 0.00 31 1031.6
20260501172610 69 135 0.0 0.0 0.00 0.00 0.00 31 1031.8
20260501172510 69 135 0.0 0.0 0.00 0.00 0.00 31 1031.9
20260501172410 69 112 0.0 0.0 0.00 0.00 0.00 31 1032.0
20260501172310 69 67 0.0 0.0 0.00 0.00 0.00 31 1032.0
20260501172210 69 67 0.0 0.0 0.00 0.00 0.00 31 1032.0
20260501172110 69 67 0.0 0.0 0.00 0.00 0.00 31 1032.0
20260501172010 69 90 0.0 0.0 0.00 0.00 0.00 31 1031.6
20260501171910 69 135 0.0 0.0 0.00 0.00 0.00 31 1031.6
20260501171810 69 135 0.0 0.0 0.00 0.00 0.00 30 1031.6
20260501171710 69 135 0.0 0.0 0.00 0.00 0.00 30 1031.5
20260501171610 69 45 0.0 0.0 0.00 0.00 0.00 30 1031.6
20260501171510 69 45 0.0 0.0 0.00 0.00 0.00 30 1031.5
20260501171410 69 112 0.0 0.0 0.00 0.00 0.00 30 1031.5
20260501171310 69 112 0.0 0.0 0.00 0.00 0.00 30 1031.4
20260501171210 69 90 0.0 0.0 0.00 0.00 0.00 30 1031.5
20260501171110 70 112 0.0 0.0 0.00 0.00 0.00 30 1031.5
20260501171010 70 157 0.0 0.0 0.00 0.00 0.00 30 1031.3
20260501170910 70 135 0.0 0.0 0.00 0.00 0.00 30 1031.3
20260501170810 70 135 0.0 0.0 0.00 0.00 0.00 30 1031.1
20260501170710 70 135 0.0 0.0 0.00 0.00 0.00 30 1031.0
20260501170610 70 45 0.0 0.0 0.00 0.00 0.00 30 1031.1
20260501170510 70 67 0.0 0.0 0.00 0.00 0.00 30 1031.0
20260501170410 70 67 0.0 0.0 0.00 0.00 0.00 30 1031.0
20260501170310 70 67 0.0 0.0 0.00 0.00 0.00 30 1031.0
20260501170210 70 112 0.0 0.0 0.00 0.00 0.00 30 1031.1
20260501170110 70 135 0.0 0.0 0.00 0.00 0.00 30 1031.0
20260501170010 70 135 0.0 0.0 0.00 0.00 0.00 30 1031.0
20260501165910 70 112 0.0 0.0 0.00 0.00 0.00 30 1031.0
20260501165810 70 67 0.0 0.0 0.00 0.00 0.00 30 1031.0
20260501165710 70 112 0.0 0.0 0.00 0.00 0.00 30 1031.0
20260501165610 70 45 0.0 0.0 0.00 0.00 0.00 30 1031.0
20260501165510 70 112 0.0 0.0 0.00 0.00 0.00 30 1031.1
20260501165410 70 112 0.0 0.0 0.00 0.00 0.00 30 1031.1
20260501165310 70 112 0.0 0.0 0.00 0.00 0.00 30 1031.0
20260501165210 70 112 0.0 0.0 0.00 0.00 0.00 30 1030.9
20260501165110 70 67 3.0 0.0 0.00 0.00 0.00 30 1031.0
20260501165010 70 135 3.0 0.0 0.00 0.00 0.00 30 1031.0
20260501164910 70 135 0.0 0.0 0.00 0.00 0.00 30 1031.0
20260501164810 70 135 0.0 0.0 0.00 0.00 0.00 30 1031.1
20260501164710 70 67 0.0 0.0 0.00 0.00 0.00 30 1031.1
20260501164610 70 67 0.0 0.0 0.00 0.00 0.00 30 1031.1
20260501164510 70 135 0.0 0.0 0.00 0.00 0.00 30 1031.0
20260501164410 70 135 0.0 0.0 0.00 0.00 0.00 29 1031.1
20260501164310 70 67 6.0 0.0 0.00 0.00 0.00 29 1031.3
20260501164210 70 45 7.0 0.0 0.00 0.00 0.00 30 1031.0
20260501164110 71 0 2.0 0.0 0.00 0.00 0.00 30 1031.0
20260501164010 71 22 8.0 0.0 0.00 0.00 0.00 30 1031.0
20260501163910 71 45 0.0 0.0 0.00 0.00 0.00 30 1031.1
20260501163810 71 45 1.0 0.0 0.00 0.00 0.00 30 1031.1
20260501163710 71 45 9.0 0.0 0.00 0.00 0.00 30 1031.1
20260501163610 71 67 0.0 0.0 0.00 0.00 0.00 30 1031.1
20260501163510 71 22 0.0 0.0 0.00 0.00 0.00 30 1031.3
20260501163410 71 45 4.0 0.0 0.00 0.00 0.00 30 1031.3
20260501163310 71 0 0.0 0.0 0.00 0.00 0.00 30 1031.3
20260501163210 71 0 9.0 0.0 0.00 0.00 0.00 30 1031.1
20260501163110 71 45 7.0 0.0 0.00 0.00 0.00 30 1031.1
20260501163010 71 45 0.0 0.0 0.00 0.00 0.00 30 1031.1
20260501162910 71 45 3.0 0.0 0.00 0.00 0.00 30 1031.1
20260501162810 71 67 3.0 0.0 0.00 0.00 0.00 30 1031.1
20260501162710 71 67 0.0 0.0 0.00 0.00 0.00 30 1031.3
20260501162610 71 90 8.0 0.0 0.00 0.00 0.00 30 1031.1
20260501162510 71 112 0.0 0.0 0.00 0.00 0.00 30 1031.1
20260501162410 71 67 0.0 0.0 0.00 0.00 0.00 30 1031.1
20260501162310 71 135 0.0 0.0 0.00 0.00 0.00 30 1031.0
20260501162210 71 45 0.0 0.0 0.00 0.00 0.00 30 1031.1
20260501162110 71 135 0.0 0.0 0.00 0.00 0.00 30 1031.1
20260501162010 71 157 0.0 0.0 0.00 0.00 0.00 30 1031.3
20260501161910 71 135 0.0 0.0 0.00 0.00 0.00 30 1031.3
20260501161810 71 135 0.0 0.0 0.00 0.00 0.00 30 1031.3
20260501161710 71 112 0.0 0.0 0.00 0.00 0.00 30 1031.3
20260501161610 71 90 9.0 0.0 0.00 0.00 0.00 30 1031.3
20260501161510 71 135 6.0 0.0 0.00 0.00 0.00 30 1031.3
20260501161410 71 135 0.0 0.0 0.00 0.00 0.00 30 1031.3
20260501161310 71 67 3.0 0.0 0.00 0.00 0.00 30 1031.4
20260501161210 71 112 0.0 0.0 0.00 0.00 0.00 30 1031.3
20260501161110 71 67 3.0 0.0 0.00 0.00 0.00 30 1031.3
20260501161010 71 112 0.0 0.0 0.00 0.00 0.00 30 1031.3
20260501160910 71 135 8.0 0.0 0.00 0.00 0.00 30 1031.1
20260501160810 71 67 0.0 0.0 0.00 0.00 0.00 30 1031.3
20260501160710 71 45 0.0 0.0 0.00 0.00 0.00 30 1031.1
20260501160610 71 67 0.0 0.0 0.00 0.00 0.00 30 1031.1
20260501160510 71 45 0.0 0.0 0.00 0.00 0.00 30 1031.1
20260501160410 71 67 0.0 0.0 0.00 0.00 0.00 30 1031.3
20260501160310 71 45 0.0 0.0 0.00 0.00 0.00 30 1031.3
20260501160210 71 67 0.0 0.0 0.00 0.00 0.00 30 1031.3
20260501160110 71 67 0.0 0.0 0.00 0.00 0.00 30 1031.3
20260501160010 71 67 0.0 0.0 0.00 0.00 0.00 30 1031.1
20260501155910 71 45 0.0 0.0 0.00 0.00 0.00 30 1031.3
20260501155810 71 112 2.0 0.0 0.00 0.00 0.00 30 1031.3
20260501155710 71 45 0.0 0.0 0.00 0.00 0.00 30 1031.4
20260501155610 71 45 0.0 0.0 0.00 0.00 0.00 30 1031.4
20260501155510 71 45 3.0 0.0 0.00 0.00 0.00 30 1031.3
20260501155410 71 45 1.0 0.0 0.00 0.00 0.00 30 1031.5
20260501155310 71 45 0.0 0.0 0.00 0.00 0.00 30 1031.5
20260501155210 71 45 0.0 0.0 0.00 0.00 0.00 30 1031.4
20260501155110 71 112 0.0 0.0 0.00 0.00 0.00 30 1031.4
20260501155010 71 135 0.0 0.0 0.00 0.00 0.00 30 1031.4
20260501154910 71 45 0.0 0.0 0.00 0.00 0.00 30 1031.3
20260501154810 71 45 0.0 0.0 0.00 0.00 0.00 30 1031.4
20260501154710 71 90 7.0 0.0 0.00 0.00 0.00 30 1031.4
20260501154610 71 67 12.0 0.0 0.00 0.00 0.00 30 1031.4
20260501154510 71 45 2.0 0.0 0.00 0.00 0.00 30 1031.4
20260501154410 71 22 0.0 0.0 0.00 0.00 0.00 30 1031.3
20260501154310 71 67 0.0 0.0 0.00 0.00 0.00 30 1031.4
20260501154210 71 135 2.0 0.0 0.00 0.00 0.00 30 1031.4
20260501154110 71 45 4.0 0.0 0.00 0.00 0.00 30 1031.5
20260501154010 71 157 0.0 0.0 0.00 0.00 0.00 30 1031.4
20260501153910 71 45 0.0 0.0 0.00 0.00 0.00 30 1031.4
20260501153810 71 67 0.0 0.0 0.00 0.00 0.00 30 1031.5
20260501153710 71 22 0.0 0.0 0.00 0.00 0.00 30 1031.5
20260501153610 71 135 7.0 0.0 0.00 0.00 0.00 30 1031.5
20260501153510 71 135 3.0 0.0 0.00 0.00 0.00 30 1031.5
20260501153410 71 90 0.0 0.0 0.00 0.00 0.00 30 1031.5
20260501153310 71 112 3.0 0.0 0.00 0.00 0.00 30 1031.4
20260501153210 71 67 0.0 0.0 0.00 0.00 0.00 30 1031.5
20260501153110 71 45 6.0 0.0 0.00 0.00 0.00 30 1031.5
20260501153010 71 67 0.0 0.0 0.00 0.00 0.00 30 1031.5
20260501152910 71 67 0.0 0.0 0.00 0.00 0.00 30 1031.5
20260501152810 71 67 0.0 0.0 0.00 0.00 0.00 30 1031.5
20260501152710 71 45 9.0 0.0 0.00 0.00 0.00 30 1031.5
20260501152610 71 45 0.0 0.0 0.00 0.00 0.00 30 1031.5
20260501152510 71 67 0.0 0.0 0.00 0.00 0.00 30 1031.5
20260501152410 71 45 9.0 0.0 0.00 0.00 0.00 30 1031.5
20260501152310 71 67 10.0 0.0 0.00 0.00 0.00 30 1031.5
20260501152210 71 45 11.0 0.0 0.00 0.00 0.00 30 1031.5
20260501152110 71 67 7.0 0.0 0.00 0.00 0.00 30 1031.5
20260501152010 71 67 0.0 0.0 0.00 0.00 0.00 30 1031.5
20260501151910 71 45 0.0 0.0 0.00 0.00 0.00 30 1031.5
20260501151810 71 112 0.0 0.0 0.00 0.00 0.00 30 1031.5
20260501151710 71 45 0.0 0.0 0.00 0.00 0.00 30 1031.5
20260501151610 71 135 6.0 0.0 0.00 0.00 0.00 30 1031.5
20260501151510 71 90 6.0 0.0 0.00 0.00 0.00 30 1031.5
20260501151410 71 45 0.0 0.0 0.00 0.00 0.00 30 1031.5
20260501151310 71 67 0.0 0.0 0.00 0.00 0.00 30 1031.5
20260501151210 71 135 0.0 0.0 0.00 0.00 0.00 30 1031.5
20260501151110 71 67 3.0 0.0 0.00 0.00 0.00 31 1031.5
20260501151010 71 90 4.0 0.0 0.00 0.00 0.00 31 1031.5
20260501150910 71 112 0.0 0.0 0.00 0.00 0.00 31 1031.5
20260501150810 71 45 2.0 0.0 0.00 0.00 0.00 31 1031.5
20260501150710 71 135 0.0 0.0 0.00 0.00 0.00 30 1031.5
20260501150610 71 45 3.0 0.0 0.00 0.00 0.00 30 1031.5
20260501150510 71 135 2.0 0.0 0.00 0.00 0.00 30 1031.6
20260501150410 71 67 11.0 0.0 0.00 0.00 0.00 30 1031.6
20260501150310 71 67 0.0 0.0 0.00 0.00 0.00 30 1031.5
20260501150210 71 67 0.0 0.0 0.00 0.00 0.00 30 1031.5
20260501150110 71 67 0.0 0.0 0.00 0.00 0.00 30 1031.5
20260501150010 71 45 0.0 0.0 0.00 0.00 0.00 30 1031.5
20260501145910 71 45 13.0 0.0 0.00 0.00 0.00 30 1031.5